GFSCGP_700_rhum_000.txt.gz
RH
16 18 18 19 17 16 18 15 17 18 20 21 23 26 25 23 24 23 26 28 30 36 38 42 44 52 58 74 88 92 95 96 89 80 73 68 82 93 100 99 86 80 80 70
18 22 22 23 23 22 21 21 24 25 21 21 25 25 26 23 23 25 26 27 29 30 32 34 40 59 68 76 73 76 82 85 72 65 85 99 98 93 85 69 64 60 50 49
20 25 25 26 25 23 20 26 25 23 26 30 31 35 32 27 29 32 38 40 41 48 51 49 48 53 52 50 44 46 54 55 64 70 67 71 62 55 50 49 47 46 45 44
24 22 28 25 24 26 25 29 28 24 24 38 34 61 65 50 49 53 54 59 62 53 45 43 26 25 27 32 37 48 56 64 65 60 62 61 56 48 46 46 46 49 52 58
26 25 22 21 23 23 31 32 31 31 30 34 38 42 60 69 65 63 63 66 61 43 42 32 37 44 43 41 40 44 51 59 54 46 44 41 42 44 51 56 47 46 50 55
25 26 27 31 31 30 33 35 35 32 33 44 39 39 55 50 44 56 55 51 50 50 48 44 54 50 42 43 53 61 61 58 50 49 49 55 63 68 70 66 59 58 56 43
35 34 31 35 30 31 34 35 45 53 64 67 49 47 37 40 47 53 48 52 54 50 51 56 58 51 50 55 61 65 68 66 68 67 76 78 72 67 59 60 54 38 24 24
32 38 36 42 40 36 36 39 40 57 78 58 53 54 47 42 49 54 54 59 57 55 54 59 46 48 55 62 68 75 76 80 88 75 54 48 51 55 53 37 20 16 15 12
42 36 29 44 44 37 28 26 39 42 53 53 54 54 50 49 55 54 58 56 57 58 61 55 52 54 63 70 75 87 92 95 72 65 46 41 37 21 11 12 14 10 7 5
41 31 28 42 40 40 29 32 26 31 54 64 60 59 48 49 51 57 57 57 60 61 57 55 54 60 64 75 86 92 91 78 76 55 37 17 14 15 14 9 7 5 5 4
42 29 38 41 38 35 33 22 18 22 39 62 81 54 46 48 46 51 54 60 60 60 55 54 60 69 75 85 95 98 96 86 76 32 18 18 14 10 8 6 6 5 5 6
42 27 46 43 42 39 38 26 23 18 33 42 49 34 39 48 55 58 60 60 58 56 54 59 69 82 98 98 97 93 95 94 36 22 18 14 10 8 7 6 6 6 6 7
41 38 42 37 32 27 28 29 28 26 26 37 57 26 29 29 40 54 58 57 56 57 61 66 80 93 99 97 94 98 86 28 25 21 16 11 8 7 7 6 6 7 8 12
43 31 29 22 23 24 26 26 26 37 36 33 30 26 32 40 44 49 53 54 57 64 69 76 84 95 90 86 97 72 38 30 23 16 12 9 8 8 7 7 8 9 13 17
41 32 33 23 22 23 22 21 28 36 35 40 29 32 35 44 48 52 55 60 65 71 78 84 89 88 88 97 90 70 44 24 16 13 10 8 8 8 8 9 10 11 14 22
29 26 21 28 26 25 23 23 22 24 26 31 33 25 29 41 46 48 50 59 68 76 83 88 97 97 96 86 79 58 31 17 14 12 10 9 9 9 10 12 12 14 25 37
21 23 20 23 19 22 21 12 12 13 16 19 25 21 30 33 44 51 55 60 70 77 83 93 97 79 74 77 70 41 20 16 14 11 10 11 11 12 13 13 15 22 42 59
13 14 17 22 24 43 13 13 13 13 15 15 21 25 30 39 49 53 54 62 75 85 90 82 73 76 80 77 46 22 19 17 14 13 12 13 14 13 14 16 27 41 54 66
28 27 21 22 25 21 16 14 13 14 17 18 28 35 36 37 43 32 40 62 84 89 84 86 88 86 86 54 23 21 22 20 17 15 14 15 14 13 17 26 39 56 65 73
32 29 30 27 29 40 17 15 14 16 25 19 24 37 33 37 38 35 63 70 83 94 90 94 91 91 72 25 23 30 25 21 18 15 14 14 15 18 23 37 53 68 70 74
21 24 32 33 33 27 21 20 20 34 20 30 30 31 40 43 47 54 66 90 99 90 98 98 96 89 32 25 32 27 24 20 14 13 14 16 20 22 34 51 72 78 73 59
27 26 26 32 41 36 21 24 30 27 33 40 45 49 56 58 61 66 87 100 100 99 96 97 100 58 26 28 30 26 21 15 13 14 16 20 23 31 45 65 87 83 73 41
36 28 29 29 24 26 32 38 42 45 51 50 61 69 75 70 66 79 89 88 98 98 98 98 87 34 33 42 26 21 16 13 13 16 20 23 24 42 52 77 92 94 91 64
23 28 35 34 34 36 41 47 49 58 57 58 75 82 81 74 80 87 93 100 98 95 97 94 40 30 36 25 21 17 13 12 15 20 24 25 30 50 64 85 100 99 97 60
39 35 36 39 36 42 44 44 46 49 49 52 62 76 72 73 87 97 95 98 96 98 95 42 37 31 26 23 17 13 11 13 20 26 27 28 44 52 70 82 100 99 92 46
37 38 46 49 50 56 52 51 50 51 52 59 63 68 72 87 92 99 99 97 98 95 61 60 42 29 25 17 12 12 16 24 29 30 31 34 54 55 68 93 100 97 51 26

GFSCGP_700_rhum_003.txt.gz
RH
20 15 16 16 13 14 14 14 20 20 23 24 24 25 25 22 24 25 24 28 32 39 44 46 48 54 59 68 84 96 86 78 80 61 55 56 56 50 56 61 64 64 55 48
19 15 18 16 18 17 20 20 20 20 19 22 22 22 24 24 24 24 25 28 31 42 48 45 44 55 67 82 85 64 43 43 48 51 55 58 69 61 56 54 52 48 45 44
17 24 23 24 23 20 19 20 24 27 24 26 25 28 26 25 24 24 27 32 36 41 50 49 48 56 44 42 38 36 43 46 54 59 63 59 54 51 48 44 44 52 49 42
16 24 26 30 27 25 24 26 25 25 30 35 29 40 35 31 29 32 39 46 51 59 49 43 27 33 44 43 41 41 45 50 62 64 55 49 51 53 54 55 58 54 44 41
22 22 23 28 26 22 26 31 28 29 29 30 33 34 44 47 46 46 54 58 62 50 33 31 42 47 53 51 45 48 58 62 62 60 57 55 56 54 47 45 45 44 33 18
20 26 26 25 30 26 25 32 33 32 33 40 35 37 40 36 32 54 65 66 57 41 48 46 48 59 48 46 48 52 58 68 73 74 82 72 62 51 46 44 29 15 12 14
28 31 31 31 31 34 34 37 48 50 55 46 42 41 33 33 37 54 58 56 50 46 46 48 58 59 52 50 56 62 68 77 83 87 86 69 61 52 36 17 13 12 9 7
30 31 28 32 30 28 32 38 36 57 60 46 51 53 37 38 40 56 56 51 50 51 51 53 61 49 52 54 59 72 80 90 92 92 78 75 72 42 21 16 11 7 7 6
32 30 34 33 39 37 34 38 37 41 50 52 48 49 42 40 40 54 54 55 55 55 55 58 57 54 54 58 70 83 92 94 96 98 85 83 55 24 21 10 7 6 6 4
39 37 31 38 43 44 38 29 37 38 56 54 49 51 39 39 37 48 54 54 55 56 58 61 56 53 54 65 80 87 92 98 98 89 85 44 30 19 10 8 7 6 5 4
43 37 40 39 37 35 34 29 21 24 35 41 48 34 25 30 41 41 45 49 54 58 60 59 54 54 62 77 89 92 99 96 89 96 63 31 17 11 9 8 7 6 5 6
44 33 37 41 38 34 32 30 18 16 25 33 39 24 20 26 37 48 51 54 57 60 59 58 54 57 71 92 98 99 94 87 96 64 35 18 13 11 10 9 8 7 7 7
43 38 40 42 40 39 34 29 20 22 21 27 52 18 20 22 28 45 54 58 61 60 58 55 53 60 86 99 99 95 87 96 63 42 22 15 12 11 10 9 8 8 8 9
41 39 32 30 24 24 28 18 22 27 23 21 19 16 20 28 32 36 44 50 56 58 55 54 59 72 97 97 93 96 86 69 57 31 16 14 13 12 11 10 9 9 10 12
33 42 35 31 22 23 24 22 22 20 21 27 17 16 16 24 31 41 49 52 54 55 56 61 71 88 96 94 91 71 74 73 43 19 16 15 14 13 12 10 10 11 14 19
31 36 38 32 29 24 19 16 16 18 21 23 19 14 16 22 27 35 42 48 52 56 64 73 82 94 94 79 75 78 80 59 25 19 17 17 16 14 12 11 12 15 21 29
22 32 28 23 22 27 27 12 11 12 12 14 15 12 18 19 27 32 41 49 57 65 75 81 88 97 85 83 86 87 73 31 22 19 19 19 17 14 13 13 16 19 28 40
14 20 25 20 21 43 14 13 12 13 12 10 10 13 20 25 32 28 34 40 34 48 70 85 96 91 93 94 94 85 42 24 22 22 22 19 16 14 13 16 19 24 38 48
32 26 20 21 26 18 16 15 15 16 15 13 12 16 24 36 42 35 37 34 38 59 80 94 95 96 92 97 87 60 26 25 23 23 22 18 15 13 15 21 23 33 46 60
41 39 33 27 27 46 17 17 17 17 20 18 22 24 35 49 39 40 42 43 51 73 89 99 100 98 97 93 76 32 26 27 23 23 20 16 14 16 20 23 28 40 60 74
33 27 29 33 34 26 20 20 22 26 24 31 31 32 38 39 44 49 50 52 70 90 94 96 97 96 97 90 48 30 32 28 23 23 17 13 15 21 25 25 41 50 78 81
40 29 25 27 37 32 23 28 31 35 37 40 40 45 46 50 61 69 68 70 84 88 98 100 86 95 99 65 55 44 33 26 25 17 11 14 21 26 26 30 46 57 87 88
36 32 31 30 26 28 34 38 40 41 44 51 54 58 59 73 80 88 84 76 79 94 93 100 100 98 87 86 57 40 30 27 15 10 16 23 27 28 28 36 49 66 87 98
25 27 29 30 30 35 37 38 41 44 45 48 50 50 53 72 84 88 83 78 98 100 100 99 98 96 93 68 48 34 26 11 10 17 20 22 27 30 32 45 53 73 82 96
34 33 34 37 36 44 46 48 52 54 54 55 56 55 58 66 71 72 76 92 99 94 99 97 95 94 74 49 35 20 9 10 17 20 18 20 31 35 35 55 62 72 86 95
35 37 44 47 53 66 63 64 65 65 60 56 54 52 52 54 66 80 99 100 83 100 97 96 94 72 42 29 14 9 11 17 22 19 18 26 34 37 37 61 68 76 86 45

GFSCGP_700_rhum_006.txt.gz
RH
23 19 20 21 16 17 16 18 16 21 15 24 19 21 22 20 20 22 24 29 36 40 46 50 50 53 61 68 72 82 83 55 34 48 48 49 45 40 42 49 54 55 55 54
23 23 17 18 14 14 18 16 25 20 23 26 28 24 24 23 22 23 25 28 32 36 44 49 53 53 58 66 83 69 35 32 38 41 42 44 48 57 62 63 60 57 49 46
20 22 17 16 16 19 23 24 22 25 22 28 40 35 25 24 24 24 24 26 26 28 37 40 45 52 71 68 44 40 38 41 41 39 42 52 56 56 58 56 50 44 41 38
23 24 24 24 24 25 25 24 25 26 32 25 28 24 50 25 24 24 24 26 31 34 41 49 46 43 40 42 48 43 46 52 54 57 58 63 64 65 61 58 53 45 33 21
20 25 27 31 26 26 32 24 28 33 32 32 34 28 47 35 28 25 27 32 38 44 55 40 34 42 49 48 45 47 50 53 64 68 69 70 75 75 68 67 58 29 21 19
19 21 26 24 24 20 24 23 31 35 36 30 30 32 27 51 44 40 36 44 46 52 41 31 41 55 59 51 46 54 61 62 69 75 78 80 82 77 78 73 40 28 21 12
33 34 30 27 29 32 33 34 29 29 34 32 38 37 25 38 28 47 35 46 52 53 36 43 48 57 57 48 51 55 64 70 75 82 85 86 90 87 72 43 34 22 13 10
27 34 35 32 37 35 40 35 28 33 38 23 48 30 25 28 30 41 47 56 56 47 45 48 53 61 51 52 56 61 72 80 85 92 94 95 95 88 66 40 19 12 10 8
30 34 29 28 38 35 32 37 40 40 44 43 29 35 33 35 36 52 71 61 55 48 47 51 55 62 55 57 64 74 81 82 84 97 98 85 90 76 43 19 12 11 10 8
27 38 31 30 36 38 37 33 38 41 45 39 27 36 29 39 39 44 68 56 54 52 53 54 59 62 59 64 72 83 87 90 93 100 96 85 74 50 19 14 13 13 11 8
39 36 43 34 42 38 42 38 31 36 36 29 24 16 18 26 36 38 42 52 54 54 55 56 60 63 62 66 79 87 92 93 98 98 94 75 54 26 17 16 15 13 10 8
40 41 48 43 35 38 38 38 31 25 31 40 53 20 15 14 22 39 51 51 54 56 58 58 61 64 67 74 83 89 94 100 98 97 66 56 37 23 18 17 15 13 10 8
36 44 46 44 41 39 41 32 27 18 18 37 56 18 14 16 16 28 46 57 51 54 57 60 61 61 65 78 89 99 100 99 96 71 69 55 29 20 19 18 16 12 9 9
40 43 43 38 32 33 41 25 25 27 34 28 31 18 23 16 19 16 28 44 53 56 60 62 61 60 66 82 98 99 97 92 74 78 70 38 23 20 19 19 16 11 10 11
35 45 41 37 31 24 22 30 24 24 24 31 19 25 23 28 24 22 26 33 43 54 55 58 60 61 69 84 93 94 93 77 82 82 50 27 21 21 21 20 14 10 11 14
44 36 32 39 36 30 24 21 24 21 30 16 24 13 25 16 18 16 23 35 44 49 52 56 58 61 72 87 95 95 85 86 90 67 34 22 23 22 23 18 12 11 14 16
43 32 35 43 34 35 38 22 20 14 12 12 28 25 21 16 18 20 26 31 37 47 53 59 64 73 85 92 97 95 88 93 82 42 23 24 23 24 23 13 11 13 17 21
25 30 39 30 25 70 25 16 14 16 13 13 13 13 16 18 24 29 36 34 34 36 31 34 68 84 90 97 97 95 94 92 55 29 32 27 25 26 16 9 12 17 21 30
26 20 23 23 42 23 16 14 14 15 16 16 15 14 16 21 32 34 44 37 37 40 41 55 79 91 94 97 97 95 96 77 42 43 34 26 27 17 9 10 17 23 26 39
44 39 32 28 37 82 20 16 17 18 29 26 21 23 25 26 31 41 46 41 45 48 53 60 78 91 96 98 98 97 90 49 59 41 29 28 16 8 10 17 23 26 30 47
39 36 40 39 36 30 21 21 23 35 36 31 31 32 34 38 49 47 48 58 62 64 69 76 87 94 93 91 98 95 60 86 49 33 28 14 8 10 14 18 26 28 38 54
47 36 30 30 36 43 25 26 30 37 33 30 35 47 50 52 55 60 69 78 86 86 81 83 88 92 97 97 97 80 92 58 40 28 12 8 10 12 13 19 29 32 44 57
46 38 32 30 31 28 31 34 37 37 35 35 39 44 49 54 52 52 58 80 88 93 88 89 95 97 98 99 95 95 89 44 26 10 9 9 13 13 13 20 30 36 52 62
33 30 30 30 31 34 38 37 40 43 48 53 55 52 52 52 53 55 59 70 86 86 95 100 100 98 99 96 95 95 57 24 9 10 10 14 16 13 14 25 31 38 57 67
35 34 33 35 34 41 42 46 58 65 67 66 66 65 61 58 58 58 60 67 76 88 94 98 98 98 96 94 94 82 41 10 12 12 17 21 16 14 20 31 34 42 64 73
33 38 42 48 60 59 60 64 69 68 67 67 73 76 77 83 78 71 68 80 93 95 98 99 96 96 94 93 81 48 12 13 14 18 26 25 17 19 26 32 36 45 68 67

GFSCGP_700_rhum_009.txt.gz
RH
23 30 26 24 23 22 17 12 12 14 17 14 21 23 29 39 41 47 54 65 74 78 68 59 63 64 64 64 70 75 80 85 62 32 42 48 45 39 35 36 41 44 47 46
28 32 27 25 22 18 15 15 16 20 20 29 24 28 32 38 41 48 51 57 64 77 42 54 58 66 70 70 76 80 81 48 32 36 38 39 38 40 45 49 55 55 55 54
25 28 23 22 21 17 16 14 23 22 28 26 24 31 39 35 39 48 59 61 67 70 40 44 55 64 66 69 76 79 41 37 38 39 43 49 56 61 60 65 64 64 64 65
32 26 25 20 20 23 20 26 27 24 28 21 21 22 32 45 26 23 37 63 74 56 33 34 42 45 56 75 57 45 42 46 49 55 58 63 72 78 72 76 73 76 64 44
28 30 22 21 28 22 45 32 25 26 27 22 26 20 34 46 46 31 25 31 42 36 41 50 71 54 58 45 45 44 50 54 56 61 65 67 72 74 76 78 80 81 60 41
35 27 27 29 23 27 22 33 29 24 23 26 20 29 43 42 39 51 39 36 54 70 77 80 64 41 39 51 49 45 50 57 62 65 68 75 80 82 86 88 87 69 48 32
27 27 24 21 31 25 29 28 23 24 29 26 23 26 22 22 39 44 68 61 62 51 51 52 39 33 45 53 51 50 53 58 62 65 69 79 82 88 86 78 59 52 37 26
24 32 30 32 28 26 29 23 24 28 26 18 29 23 18 22 29 36 66 77 60 47 52 49 33 41 52 53 49 52 53 57 62 67 68 79 91 96 93 61 55 40 27 22
23 28 33 31 37 28 25 31 28 31 37 32 21 18 21 26 36 45 67 76 75 59 55 42 42 47 50 55 53 54 58 62 66 70 80 90 99 100 80 55 47 30 22 20
28 27 34 36 29 29 33 32 31 27 31 34 19 20 18 38 40 48 64 71 78 80 67 48 47 48 53 59 58 60 65 69 72 77 84 92 100 88 60 58 37 23 21 18
28 29 39 42 36 25 38 28 30 32 38 35 26 18 25 22 36 44 55 65 74 76 77 63 55 52 55 61 62 69 75 75 80 84 90 99 94 69 66 49 28 23 20 16
29 33 44 36 35 32 39 32 32 31 28 35 43 24 18 10 20 43 50 58 68 72 76 86 62 54 56 60 63 70 75 83 88 90 94 97 71 73 57 35 25 23 20 12
42 32 40 38 42 38 30 32 32 29 30 27 48 23 29 13 12 19 45 55 67 72 77 88 60 54 57 59 63 70 82 92 96 97 99 81 79 73 47 28 25 22 17 8
37 33 35 35 32 33 38 29 31 30 30 27 24 20 22 29 34 38 21 44 58 70 80 86 61 55 59 62 66 74 86 95 100 98 96 83 86 60 34 27 25 22 11 7
40 45 38 39 43 36 31 30 30 28 27 23 24 14 15 19 25 29 38 24 47 66 50 60 58 58 61 65 69 76 85 98 99 98 89 89 79 44 30 30 24 15 7 7
44 51 47 43 46 39 38 33 26 27 27 22 20 20 19 27 30 20 38 16 18 29 33 41 47 60 63 65 72 78 84 96 98 99 91 93 61 34 34 26 21 8 7 10
61 50 46 42 45 50 45 25 31 27 26 26 25 25 31 39 33 26 38 30 24 30 35 40 47 53 59 64 70 80 90 94 97 97 96 77 74 61 28 24 10 8 11 16
47 49 49 44 33 72 26 27 26 26 28 27 29 29 29 38 31 20 22 38 31 35 33 36 36 33 44 68 75 89 92 93 98 98 96 95 80 34 27 13 8 12 22 70
32 30 37 47 39 29 26 21 16 18 18 32 36 31 35 32 21 29 42 45 39 38 40 44 44 43 49 64 85 93 97 98 98 98 94 76 47 30 17 8 11 15 19 71
41 31 37 28 51 82 41 21 16 16 27 43 30 39 41 24 41 45 62 55 52 43 49 62 59 64 70 73 87 94 98 99 100 94 91 95 53 22 8 10 12 14 20 42
49 50 50 60 60 48 42 23 22 34 44 42 27 34 54 51 55 62 51 48 57 62 78 83 85 82 82 89 97 99 98 98 97 97 94 89 29 10 9 12 13 14 23 30
48 44 42 60 56 53 32 27 32 54 32 40 34 52 68 39 41 48 61 48 50 56 80 85 91 95 96 97 98 99 98 94 94 97 90 58 36 12 11 14 12 17 27 31
65 63 64 46 48 49 29 32 45 32 32 34 39 42 53 58 69 66 82 55 52 60 73 84 91 95 100 98 96 98 96 96 95 94 64 32 16 12 17 14 13 20 31 34
48 40 34 31 44 52 56 50 47 44 56 59 63 66 64 62 62 64 74 68 68 66 65 64 76 93 100 99 99 96 95 95 92 57 42 22 13 18 20 16 18 29 32 36
51 43 45 50 40 51 61 67 80 59 66 69 72 69 74 65 77 81 82 80 80 76 78 82 95 100 100 99 97 96 94 91 66 44 32 19 20 23 21 19 25 33 37 38
44 50 51 63 62 60 70 80 62 65 66 67 73 77 81 85 91 93 86 85 82 90 91 96 99 99 97 96 95 94 90 68 43 26 18 22 27 30 27 24 26 32 34 40

GFSCGP_700_rhum_012.txt.gz
RH
26 34 27 25 25 24 23 20 18 17 14 12 20 25 29 33 44 54 68 62 71 80 84 68 58 63 68 50 54 66 70 76 83 68 32 34 36 35 34 36 41 45 54 52
32 30 31 34 27 27 23 19 14 15 16 14 16 22 25 32 34 42 49 59 68 75 85 66 68 73 61 56 58 62 70 79 76 46 35 37 37 41 45 45 49 53 59 63
34 33 31 29 29 24 18 18 22 19 16 16 26 25 25 29 34 36 40 46 58 70 78 64 59 63 72 85 86 77 69 74 44 37 38 40 46 54 55 54 56 55 51 63
40 32 31 27 22 20 27 28 25 28 26 20 22 35 50 38 32 38 43 49 53 61 73 62 39 49 61 65 75 82 94 51 40 42 44 53 51 51 58 64 71 62 70 74
32 29 29 26 26 28 31 24 29 22 23 24 27 32 42 35 46 45 49 54 58 66 74 67 42 35 43 50 73 98 63 42 47 47 52 51 52 60 63 70 77 73 65 54
29 35 31 32 28 28 28 24 26 21 19 43 29 37 50 39 33 43 49 59 68 67 79 86 62 58 57 73 72 52 45 46 49 50 49 55 61 63 68 76 81 90 74 51
26 27 25 27 23 25 25 25 24 38 47 40 21 36 26 29 41 44 34 60 72 84 75 93 95 94 98 64 40 47 49 49 50 48 51 56 61 67 74 86 88 99 70 52
28 24 27 22 22 34 29 19 29 78 79 43 28 28 21 24 37 34 59 67 72 94 94 92 97 90 66 39 46 52 50 50 50 51 55 59 63 71 77 88 98 92 58 49
41 45 38 29 27 28 19 21 24 28 47 38 25 18 14 28 28 31 53 70 60 66 80 82 86 64 47 36 46 53 51 52 53 54 57 62 68 74 85 98 96 60 56 48
50 59 38 35 30 31 20 28 30 28 39 38 20 20 25 32 35 33 47 64 76 78 80 81 85 70 44 38 46 52 57 56 56 58 62 68 75 83 93 98 71 64 55 41
28 47 35 40 35 23 32 29 26 25 29 57 52 25 23 24 25 32 42 59 72 77 73 70 70 68 54 48 48 51 59 60 61 63 72 78 84 92 99 94 75 64 49 33
28 28 29 35 31 30 33 36 26 30 31 35 39 34 21 16 9 11 37 47 62 68 68 72 71 75 74 56 53 54 57 60 62 67 78 88 94 98 98 88 75 62 41 35
30 30 31 34 38 37 33 26 31 32 33 38 54 31 27 22 18 18 32 42 53 62 71 74 77 83 76 65 63 58 59 63 64 74 83 96 99 100 98 93 66 40 37 30
36 39 29 38 32 35 36 30 24 28 33 33 27 23 23 24 29 32 31 32 46 54 64 70 72 81 85 79 67 62 66 69 75 81 100 99 100 100 96 88 37 55 61 22
35 40 36 32 32 40 37 30 29 25 27 29 27 24 20 16 21 24 29 37 31 30 55 63 71 80 88 89 79 76 76 77 84 95 100 99 99 98 98 81 50 94 58 10
39 48 48 47 44 42 40 38 32 27 25 25 24 22 19 24 26 28 26 32 43 25 32 54 68 78 86 88 83 70 78 82 84 100 100 99 98 98 93 78 93 44 11 8
64 52 50 54 51 43 42 34 30 34 28 25 25 24 24 27 34 36 40 40 45 26 25 30 51 64 62 62 64 66 73 83 82 100 100 98 100 100 96 94 63 50 11 20
68 56 61 51 43 61 26 31 31 33 31 28 25 25 26 29 34 35 24 40 40 55 38 38 36 37 39 42 47 67 70 79 86 100 99 99 97 94 95 90 61 21 55 15
51 52 52 51 48 32 30 28 24 25 21 29 30 30 34 38 34 28 44 50 50 52 50 50 54 49 55 55 57 67 78 85 98 100 100 99 96 97 95 63 69 62 14 13
41 48 48 35 56 76 46 32 20 15 29 43 36 39 37 37 29 46 53 60 55 58 61 72 77 84 84 82 90 89 96 98 94 95 95 94 93 94 95 93 51 25 19 13
53 44 38 54 47 46 44 40 29 32 46 50 41 30 29 41 55 48 54 49 45 45 50 59 80 95 98 100 99 100 97 97 93 96 94 96 95 93 88 66 43 42 17 13
42 44 46 66 81 62 41 37 30 62 52 34 32 41 35 43 46 44 62 66 84 47 54 60 70 66 80 92 99 99 98 96 100 100 96 96 94 93 71 60 46 20 15 16
61 60 67 57 53 53 41 36 43 47 43 33 35 48 68 75 74 78 62 70 84 62 73 65 69 72 75 84 98 100 98 100 97 97 95 93 90 84 65 38 20 18 17 18
66 60 53 49 39 49 52 56 60 63 68 77 64 63 90 74 62 74 86 90 78 88 87 80 80 84 96 100 99 98 99 96 96 96 94 88 77 51 24 20 23 22 21 23
62 62 50 57 49 49 52 62 70 68 60 61 61 72 70 74 80 85 85 80 84 89 92 97 100 100 100 100 98 96 96 96 93 87 74 50 26 22 23 21 22 25 29 30
55 58 57 47 64 52 63 74 65 62 58 62 66 70 77 86 90 85 87 83 89 99 100 99 100 99 92 89 98 97 92 84 76 52 26 21 22 23 27 28 30 31 31 41

GFSCGP_700_rhum_015.txt.gz
RH
31 35 31 26 29 26 22 23 24 23 22 21 13 24 41 52 54 51 67 60 61 38 39 48 44 34 41 48 50 56 63 68 69 74 76 47 38 32 36 37 38 40 47 50
37 30 28 31 32 29 28 28 25 22 19 12 21 22 27 32 38 49 50 42 60 62 58 61 56 39 35 44 46 52 61 64 65 67 62 39 36 38 43 47 48 52 50 52
31 33 30 35 32 29 27 32 24 18 17 15 18 30 30 33 39 48 52 47 63 61 55 46 52 40 36 31 45 53 60 69 72 70 46 40 40 42 42 45 52 60 64 69
34 34 32 34 32 28 29 24 26 24 23 25 18 41 27 30 34 38 46 50 60 64 59 56 55 62 56 58 58 48 54 60 76 62 41 42 45 46 44 47 56 65 72 77
30 33 30 33 32 31 27 25 24 27 25 30 30 33 38 38 36 33 38 44 46 51 52 57 62 75 76 90 94 94 92 77 74 46 43 47 51 48 51 56 62 71 80 82
32 34 36 35 29 23 30 22 20 24 29 47 33 30 31 35 33 31 35 42 51 54 57 65 72 72 72 72 72 73 75 81 59 43 47 49 46 50 56 60 67 76 82 88
32 28 34 32 31 29 27 27 35 40 59 65 42 40 34 29 29 32 28 29 44 55 65 68 72 71 67 61 56 63 65 67 46 48 50 48 50 55 58 65 71 76 88 88
32 34 32 33 28 27 27 26 33 54 85 62 39 44 36 24 24 34 34 40 43 58 60 63 63 84 99 69 50 57 58 45 50 50 51 51 52 56 62 66 72 83 93 93
38 38 36 35 31 31 27 29 28 40 52 78 42 28 31 31 37 37 40 47 43 56 62 70 92 100 93 63 60 60 47 51 53 51 52 54 55 57 61 69 76 85 97 94
27 35 36 40 40 32 27 25 30 31 69 55 26 29 34 37 37 36 44 54 66 63 59 66 68 60 61 73 81 74 53 53 55 56 56 57 60 63 67 75 84 94 100 92
27 30 33 43 46 33 29 30 20 28 27 60 74 34 24 20 19 36 43 61 58 57 60 57 52 55 60 68 70 58 51 47 51 55 61 66 70 75 81 87 98 100 99 96
29 34 43 42 34 33 29 34 37 27 29 33 40 37 29 24 18 17 27 42 50 53 55 58 58 54 49 47 42 41 51 59 60 61 63 70 82 88 95 96 98 100 99 88
32 30 28 33 40 36 30 28 29 30 28 31 48 33 27 23 25 22 21 27 42 51 55 58 63 60 52 49 50 54 57 71 79 80 74 77 92 97 96 97 100 98 96 89
31 37 30 30 29 35 37 35 32 24 32 34 34 31 23 21 25 27 29 28 24 44 55 57 60 64 70 74 72 72 78 82 83 82 89 89 100 98 99 98 98 98 95 92
28 29 39 32 33 36 39 39 38 26 25 28 28 26 25 28 23 32 32 35 37 33 51 62 65 65 70 73 77 85 80 67 69 80 88 99 99 99 99 97 96 94 95 86
29 28 32 36 36 41 42 41 40 38 31 29 27 27 26 27 27 29 30 31 34 44 26 24 48 71 71 68 69 69 63 67 76 81 88 100 100 100 96 96 94 100 95 84
38 39 38 44 41 39 40 26 33 31 34 32 30 26 25 27 29 33 34 34 27 21 32 26 26 27 49 57 56 56 49 51 62 92 100 99 97 93 91 98 98 96 94 92
42 45 56 54 52 51 34 30 33 34 35 32 31 30 29 30 32 34 35 30 25 32 40 42 44 43 41 47 44 45 58 66 89 99 100 100 100 100 100 99 96 94 94 88
60 55 59 56 47 43 31 30 28 21 30 30 29 33 30 33 36 32 25 26 37 46 47 54 57 49 51 57 61 74 81 85 86 94 100 99 98 97 97 97 96 95 88 76
55 54 54 56 50 62 39 34 28 23 35 38 32 30 32 30 26 25 27 31 41 51 46 58 55 49 51 72 86 92 99 100 100 100 100 100 96 98 96 94 95 93 70 58
50 62 63 48 35 33 42 40 34 29 40 49 46 43 35 27 30 31 40 57 54 44 43 46 54 57 60 67 86 96 96 94 94 98 96 97 98 97 94 95 86 79 68 50
41 46 48 49 64 56 44 45 42 42 41 48 47 33 31 31 31 34 48 63 58 54 54 55 65 83 87 95 98 99 99 99 98 97 99 99 96 95 96 91 82 70 33 24
56 47 41 41 47 40 42 39 38 42 44 36 34 35 37 39 49 61 72 66 62 61 67 76 93 93 96 99 98 99 100 100 99 98 97 96 96 96 90 68 55 27 28 24
58 64 65 63 58 51 51 52 55 56 53 44 44 44 52 61 67 69 71 76 79 82 93 99 98 100 100 100 100 100 98 99 99 97 94 96 87 48 60 42 25 28 32 30
52 60 59 49 41 45 50 54 56 59 60 56 62 62 61 66 72 77 82 82 82 84 80 80 95 100 100 92 88 85 80 79 87 94 86 56 52 46 25 23 26 28 32 40
47 50 52 55 53 50 50 52 56 59 66 66 61 62 66 75 83 82 72 82 81 78 75 74 78 80 73 71 73 78 86 86 76 56 51 40 25 23 24 24 28 39 37 33

GFSCGP_700_rhum_021.txt.gz
RH
36 35 30 31 32 33 29 29 27 28 31 32 34 40 45 52 51 57 55 24 23 25 28 34 42 43 38 33 38 43 44 44 46 53 61 68 69 52 45 39 37 38 39 43
36 31 31 31 31 32 32 29 26 27 26 26 28 33 48 51 43 48 51 46 32 30 29 29 34 40 41 43 44 45 52 57 62 65 69 74 78 61 52 40 41 41 45 52
34 28 29 30 29 29 30 29 30 30 24 21 24 28 47 54 49 61 58 55 51 45 42 39 40 37 39 42 46 49 52 59 69 72 72 72 71 68 50 43 44 46 50 51
32 32 31 31 28 29 30 27 29 28 26 25 25 45 45 38 41 46 53 56 47 48 48 50 51 50 49 53 54 55 60 66 72 68 72 82 85 74 44 47 49 52 55 58
31 33 35 33 30 31 30 32 29 29 31 28 32 32 28 38 47 45 40 53 51 49 46 48 50 51 59 68 65 70 78 79 76 68 69 78 72 73 46 49 51 56 60 63
34 34 34 34 30 32 33 34 30 29 29 48 34 37 32 32 28 27 29 33 40 50 41 40 49 60 66 73 77 73 80 82 74 64 73 66 73 66 52 51 55 57 58 62
33 31 33 32 34 33 33 34 35 39 56 56 38 37 28 25 28 31 30 29 31 36 44 48 48 51 54 63 68 78 88 84 81 77 85 99 79 64 66 53 58 61 65 69
31 33 32 37 36 31 33 36 32 44 64 42 40 39 26 26 29 25 26 28 35 35 39 48 48 55 52 58 66 80 90 81 72 75 89 100 96 83 78 86 87 98 94 89
30 31 32 36 36 32 32 34 33 35 57 58 35 32 26 23 25 25 23 27 30 33 35 40 51 59 56 61 68 71 74 66 62 73 76 78 76 77 80 81 97 100 100 96
28 32 30 34 33 33 33 32 33 34 54 57 43 31 27 31 31 30 28 18 30 31 33 38 45 54 61 64 62 67 63 67 63 63 55 61 74 78 77 78 89 99 97 99
28 28 31 33 33 28 32 35 33 31 34 63 66 35 22 34 23 16 17 17 17 30 32 39 42 51 49 36 32 39 40 41 46 52 58 55 58 63 74 82 88 95 100 100
27 26 27 29 27 28 27 33 35 37 34 35 43 34 28 28 26 22 22 22 19 18 37 40 47 54 53 46 50 54 59 60 61 62 60 62 74 80 86 93 100 100 100 100
24 24 29 31 28 31 31 34 30 38 37 37 49 32 29 29 28 25 25 25 26 18 18 26 34 45 55 59 61 64 68 69 71 68 75 76 81 90 93 100 100 100 100 100
29 25 26 32 30 31 35 34 38 38 36 32 31 29 32 32 31 27 22 24 27 25 27 34 38 50 70 65 72 73 60 66 68 76 80 83 86 93 93 100 100 100 100 100
34 34 36 33 31 30 37 40 40 40 39 39 39 31 27 27 29 26 26 28 31 30 28 31 38 46 54 67 49 48 55 60 76 84 87 86 94 84 94 99 100 100 100 100
37 38 37 35 34 31 29 32 38 43 43 42 40 34 30 28 29 29 27 31 33 33 32 32 32 36 44 46 39 34 43 64 81 88 91 96 77 95 100 99 100 100 100 100
40 39 36 34 34 42 44 35 30 30 38 41 38 38 34 36 30 27 29 30 36 39 40 38 38 31 32 38 35 34 38 42 54 60 64 69 73 85 98 98 99 99 100 100
37 37 36 34 33 67 29 27 28 26 20 21 34 29 25 33 34 34 34 36 37 38 31 27 30 33 39 36 30 34 39 42 50 64 72 78 92 100 98 91 100 98 99 96
42 44 41 47 45 42 41 38 33 34 36 33 32 33 35 39 40 39 39 37 31 28 29 33 37 39 38 38 43 44 45 46 56 72 79 88 91 96 99 99 98 98 96 96
52 56 51 60 57 68 40 45 44 34 36 37 38 36 37 39 39 36 32 32 30 32 34 36 42 50 52 51 48 44 47 55 68 80 92 96 95 98 99 98 100 99 97 96
62 66 65 63 66 56 47 38 36 39 33 31 35 40 39 38 38 37 32 31 32 34 39 44 47 49 47 42 39 44 56 69 84 98 100 97 99 99 99 99 96 96 97 96
46 52 66 73 68 58 45 37 39 34 32 33 34 36 43 49 40 35 34 35 41 43 45 47 47 47 44 45 54 58 66 80 92 100 100 99 99 98 96 97 97 98 97 91
39 31 36 44 50 44 37 38 37 36 37 39 36 41 46 41 35 30 34 38 41 46 51 56 59 58 60 68 71 71 74 83 92 99 100 100 100 100 93 82 84 92 91 76
44 42 44 38 42 39 38 33 37 39 38 38 41 43 47 37 35 42 48 50 52 59 68 75 72 71 79 81 80 82 80 88 99 96 85 74 74 75 75 74 74 67 49 40
30 39 37 36 35 38 38 37 38 36 38 43 47 51 55 55 56 67 72 60 62 71 80 80 77 81 78 65 60 62 64 66 68 70 67 62 55 46 40 35 31 28 24 22
31 30 30 21 24 36 42 42 42 46 50 54 57 60 66 70 75 79 64 66 74 87 90 82 82 67 56 56 58 59 60 58 51 41 33 29 28 26 25 24 24 26 28 30

GFSCGP_700_rhum_024.txt.gz
RH
36 34 29 28 32 34 34 31 29 32 39 37 37 36 38 44 42 45 36 26 30 30 39 41 36 32 26 30 36 41 46 47 50 53 61 66 70 69 51 41 38 37 40 42
37 34 33 33 31 33 33 30 28 31 31 30 30 30 39 43 40 38 48 26 27 29 30 32 32 34 35 34 37 40 44 45 52 59 66 71 76 74 66 48 40 40 42 43
35 34 34 29 30 31 29 28 31 34 31 26 28 29 34 38 41 48 46 54 47 32 35 32 33 32 33 34 35 40 44 50 56 62 65 69 70 72 75 68 42 43 45 46
32 32 33 33 30 30 28 28 33 31 31 29 30 30 30 31 35 39 43 39 44 47 48 44 46 45 46 52 45 45 50 57 65 74 76 75 79 87 90 90 46 46 49 52
30 31 34 34 30 29 27 29 34 31 30 30 32 30 24 28 43 31 30 31 34 40 47 50 49 49 54 59 66 64 62 70 78 82 80 74 82 86 97 95 63 49 52 55
30 32 34 34 34 27 31 34 34 33 31 45 32 35 31 27 25 24 28 31 32 37 38 45 54 54 54 63 64 70 74 72 83 89 84 84 82 88 95 85 84 69 63 65
30 30 33 35 36 32 33 36 38 42 56 55 41 43 29 24 23 25 31 32 32 32 35 40 44 47 51 54 54 65 76 75 80 94 90 84 82 98 99 75 76 80 74 67
32 33 30 33 33 34 34 35 38 45 63 42 41 38 24 22 29 27 29 27 31 32 33 36 37 41 52 60 61 66 73 74 80 95 88 80 83 84 93 98 76 74 71 76
32 33 31 32 36 38 35 33 33 34 52 60 35 29 26 22 26 22 29 29 31 32 36 38 39 44 52 55 61 63 73 75 81 78 74 73 74 76 81 83 93 78 73 80
29 31 30 33 38 37 35 32 35 38 50 56 44 37 27 24 32 34 29 22 17 27 36 36 37 40 47 61 71 67 70 61 78 83 71 61 60 65 70 68 70 76 82 97
29 29 30 37 39 35 34 34 34 35 37 58 66 35 27 24 31 20 17 18 15 12 29 31 37 42 35 33 39 29 33 38 49 62 66 63 62 66 71 82 83 91 95 99
30 32 30 28 34 33 31 32 34 35 38 38 44 34 26 28 29 27 28 23 24 18 18 24 30 18 22 34 53 57 55 52 65 63 64 70 76 82 85 94 99 99 100 99
29 32 31 30 28 28 28 25 31 38 40 41 51 37 32 30 30 30 30 28 24 25 18 15 20 22 25 49 59 69 70 71 71 73 64 68 76 89 98 99 99 100 99 100
31 29 29 30 26 24 26 27 31 36 42 39 37 34 34 33 32 31 32 28 24 25 26 23 24 25 38 54 64 70 64 53 45 54 59 68 79 84 88 93 100 100 97 99
34 33 28 22 21 24 26 32 32 32 35 41 38 40 40 36 27 28 27 27 26 27 28 27 26 30 35 55 50 52 52 48 45 57 73 85 91 90 88 99 100 98 97 96
34 35 33 28 31 34 32 31 30 38 38 40 42 43 39 34 29 27 30 29 27 27 28 32 31 34 36 46 52 54 42 36 31 31 39 72 92 77 72 84 99 100 100 100
37 35 40 40 38 36 39 33 32 32 30 30 40 38 41 40 38 34 30 30 29 33 36 37 40 40 37 33 29 30 31 29 29 32 37 42 46 61 74 94 97 99 99 99
33 33 42 38 40 62 35 35 33 30 36 36 33 30 26 30 32 28 32 35 38 43 44 42 35 29 27 27 26 26 30 38 42 43 45 49 60 82 96 99 99 99 98 96
40 35 42 39 39 37 38 36 34 29 31 31 29 29 28 31 30 38 39 39 40 38 33 30 28 28 27 27 35 46 50 48 43 45 52 68 84 99 98 99 99 98 99 97
45 44 42 46 47 66 41 43 42 35 40 41 34 35 35 35 40 41 41 37 33 32 31 29 29 32 41 49 51 46 39 37 42 53 64 81 100 99 100 97 98 99 98 96
47 44 47 48 52 52 50 48 40 44 35 34 33 33 38 41 42 40 36 38 34 32 29 28 35 42 45 42 40 38 40 52 59 65 80 86 99 100 96 96 99 100 98 97
45 53 57 62 69 70 50 51 48 44 35 34 32 32 38 42 41 44 44 36 30 25 28 35 39 40 40 43 46 50 57 60 59 54 53 68 74 82 89 89 91 90 78 74
46 40 43 49 50 47 43 38 49 42 39 35 38 38 39 46 52 43 36 26 29 38 42 42 43 46 51 58 61 68 69 63 58 56 57 63 75 76 67 67 65 54 39 28
45 43 51 45 38 29 32 40 35 37 40 40 39 40 46 50 44 35 27 33 41 50 52 52 55 63 75 75 78 75 59 53 54 59 61 65 66 58 42 29 24 24 24 24
42 43 43 41 38 29 25 31 35 35 37 38 36 39 43 45 43 43 43 50 61 68 61 63 74 88 86 84 74 57 53 55 58 58 52 40 27 23 22 22 22 23 25 28
44 42 41 33 19 23 22 27 30 34 34 33 40 45 50 54 57 61 62 67 77 71 75 88 97 95 87 71 59 57 57 50 38 28 23 20 20 22 23 24 25 28 29 30

GFSCGP_700_rhum_027.txt.gz
RH
31 31 25 25 32 34 32 30 31 35 41 41 38 40 38 40 39 43 39 43 22 34 38 32 21 26 32 35 36 42 48 54 56 56 53 54 60 59 59 53 44 38 39 40
38 33 35 33 32 32 33 31 32 34 32 34 34 34 34 35 36 42 34 31 29 30 30 31 25 26 29 31 36 40 44 47 53 59 67 68 70 73 78 68 50 41 40 42
35 34 35 34 33 32 31 33 34 32 29 28 30 30 30 31 37 37 49 36 36 32 32 31 31 32 32 33 36 41 45 49 54 61 66 67 69 73 71 77 86 55 42 43
33 32 33 33 33 34 31 31 32 34 31 29 27 28 25 27 29 32 35 47 39 31 32 33 37 35 42 41 38 41 44 49 54 60 66 72 82 80 84 90 94 96 61 46
31 31 34 35 34 32 31 31 30 33 35 32 33 32 21 21 23 22 25 31 38 46 45 42 42 47 48 51 56 49 48 53 60 68 75 86 88 80 89 97 99 100 98 56
31 32 33 33 34 33 33 31 32 34 33 40 33 34 28 28 24 24 28 26 29 33 38 46 52 51 50 53 57 64 66 68 68 73 84 83 84 84 88 97 98 97 93 88
32 30 32 33 36 35 34 33 39 40 47 44 37 41 30 25 23 23 24 27 32 32 35 35 40 44 53 54 56 64 66 68 75 77 75 76 84 82 80 90 88 98 84 89
34 32 30 35 37 34 34 33 38 44 51 36 41 43 26 24 22 21 27 25 28 28 30 32 34 40 45 54 62 61 63 68 73 80 86 83 80 83 87 92 90 88 96 92
32 32 29 31 31 34 34 38 35 35 48 54 36 31 26 24 24 26 29 27 28 26 28 30 34 36 40 44 55 64 68 72 77 80 79 80 80 79 74 72 70 80 98 94
31 31 31 31 36 36 38 36 38 36 51 51 42 36 29 25 24 30 25 20 20 15 21 27 35 35 45 48 57 65 72 70 74 82 81 86 72 76 82 80 81 80 84 94
32 31 31 35 37 35 38 39 35 33 36 45 45 31 25 26 23 26 21 20 20 16 14 25 29 41 44 38 52 54 55 40 34 47 62 62 72 73 74 78 81 89 97 99
31 30 30 29 30 34 39 38 36 35 38 39 42 37 30 29 26 28 29 29 26 25 20 17 19 33 15 12 16 19 30 47 57 67 67 69 70 71 75 85 99 98 99 99
30 31 32 33 32 37 40 38 32 27 27 36 50 38 32 31 30 31 31 30 31 25 25 16 17 20 22 25 35 62 72 72 74 67 58 62 66 67 74 81 97 100 98 80
30 30 30 34 31 29 30 27 27 25 35 38 39 35 34 33 38 36 32 30 29 27 25 24 20 24 26 42 49 66 65 64 64 63 61 52 49 64 75 82 93 88 94 98
31 32 32 31 27 27 26 25 23 28 32 37 32 36 38 38 38 32 28 31 27 27 26 26 27 26 26 29 39 51 42 40 43 45 42 35 36 37 59 89 88 86 99 98
29 32 32 35 32 30 26 23 23 35 34 31 30 33 34 38 38 34 29 28 30 29 26 26 28 30 29 30 33 43 44 37 39 37 36 31 27 32 42 80 69 90 100 100
32 34 36 36 34 34 37 27 33 32 31 30 32 29 30 34 38 35 39 37 32 29 28 29 32 35 37 39 37 36 30 27 26 26 29 40 43 44 48 60 87 100 100 92
49 42 37 39 41 66 37 36 36 36 34 34 33 30 37 36 34 30 30 33 31 34 36 39 42 44 40 33 29 28 25 24 32 42 44 42 43 48 61 88 99 99 90 95
47 44 45 44 45 38 40 38 36 36 36 36 32 32 32 31 32 31 32 31 38 44 45 43 38 33 30 29 25 22 29 38 39 36 36 41 52 68 81 94 96 98 96 94
43 46 48 44 44 59 38 38 39 40 40 33 38 34 38 31 36 35 40 42 42 41 36 33 33 31 26 23 30 34 36 36 38 45 53 57 62 73 85 93 92 92 85 89
54 54 50 46 44 41 40 42 43 48 27 34 36 35 35 34 39 43 44 42 38 36 37 34 27 24 30 34 36 37 40 44 50 56 57 54 48 44 44 46 56 66 70 76
44 50 51 49 50 53 41 44 45 33 35 41 42 32 35 37 45 45 42 40 43 38 30 26 31 35 38 41 45 51 54 55 60 58 48 40 40 40 46 55 63 61 48 32
54 42 43 42 42 41 38 34 40 39 33 49 41 34 35 39 43 44 45 46 37 28 32 38 41 45 48 55 61 65 64 67 62 47 42 43 46 48 47 39 28 20 19 19
49 45 44 42 41 40 35 42 42 26 36 37 39 38 38 44 47 50 50 39 30 36 41 49 58 58 61 67 77 78 76 66 51 48 48 45 36 28 22 18 18 22 24 25
49 46 45 43 39 38 40 38 37 25 37 36 42 40 45 48 53 51 46 40 42 48 58 69 71 72 81 84 88 83 71 58 54 49 37 28 21 18 21 26 27 28 29 29
57 48 45 43 40 36 39 38 24 24 35 36 40 39 43 55 53 51 53 58 63 68 76 82 81 90 98 99 95 76 63 58 43 31 23 19 24 29 30 30 30 30 30 24

GFSCGP_700_rhum_030.txt.gz
RH
41 44 30 24 29 35 35 28 27 30 37 46 43 43 46 45 42 36 52 42 58 39 34 24 32 33 35 37 39 41 42 44 56 54 50 48 49 53 57 55 54 43 38 40
44 38 30 30 31 33 38 31 29 32 32 30 35 37 53 36 44 46 32 29 27 47 38 19 27 31 34 38 42 47 51 54 56 57 60 60 61 58 54 60 56 49 42 39
39 34 34 31 33 33 37 30 34 31 28 27 35 31 38 32 37 40 30 27 26 29 31 25 23 26 30 32 36 41 46 50 55 59 63 62 61 63 67 69 73 87 75 45
42 36 35 36 34 36 33 34 34 35 30 26 28 22 30 42 28 34 42 25 29 30 29 31 30 30 30 32 34 39 42 46 50 56 60 64 68 71 77 80 86 94 94 83
35 33 33 35 32 33 31 34 37 35 32 34 34 24 27 20 35 30 28 40 35 35 38 33 35 32 34 36 36 38 41 44 49 52 56 62 69 77 85 85 87 92 93 93
32 32 37 33 34 33 36 34 36 34 36 32 31 27 22 26 29 30 42 30 32 41 38 39 40 40 41 43 50 50 46 46 50 56 63 71 78 82 90 84 86 92 95 99
34 34 34 33 36 34 36 33 30 32 34 32 38 39 24 26 27 22 21 30 30 31 39 43 46 47 46 48 50 53 60 63 66 71 76 79 82 91 89 87 86 92 94 90
32 30 34 33 35 36 36 29 30 39 36 25 44 31 26 27 24 22 21 20 25 30 30 30 35 42 48 52 55 55 56 60 66 71 75 79 85 91 92 92 93 100 99 99
30 28 30 32 33 37 42 35 32 40 36 35 28 30 23 25 26 24 31 27 24 26 26 28 31 34 40 49 54 62 66 68 79 72 74 82 87 91 89 83 84 73 91 93
33 30 33 32 32 38 39 35 36 39 41 38 27 28 22 24 25 23 24 23 20 19 22 23 29 33 35 36 42 52 66 71 74 77 75 82 90 71 70 96 92 98 98 96
31 30 42 31 40 36 40 39 38 38 38 31 31 26 27 27 28 28 28 20 24 22 18 14 22 32 36 39 46 51 54 62 68 73 72 74 57 52 64 80 88 87 92 96
35 35 31 31 37 35 38 34 38 36 35 45 47 31 28 31 31 25 28 29 29 27 25 21 18 16 34 41 36 35 52 58 64 51 36 34 52 62 63 71 74 76 83 92
40 39 34 30 36 34 40 41 40 41 36 34 46 30 29 30 32 30 29 31 30 31 28 25 14 17 20 17 15 18 27 27 34 47 61 69 66 62 68 82 60 66 73 79
27 30 31 31 26 29 40 38 42 40 37 32 33 27 28 33 34 33 36 35 32 31 30 27 22 21 23 24 26 30 44 61 68 60 60 59 51 51 56 54 57 70 89 98
34 32 33 28 28 27 29 28 33 36 35 29 30 31 34 31 33 38 34 25 30 31 28 26 27 26 27 27 32 46 51 55 60 51 41 46 54 50 41 36 28 39 76 100
34 37 37 38 34 32 34 31 29 30 28 28 33 32 35 33 31 37 36 27 30 29 28 27 26 26 28 30 37 43 45 48 54 51 38 34 30 29 25 31 38 40 63 84
36 37 38 36 37 36 46 34 35 34 32 30 33 36 36 37 32 35 37 34 31 38 32 30 28 28 29 33 35 37 38 38 34 28 27 24 24 34 41 43 47 53 67 82
50 38 46 40 44 76 35 34 30 35 34 38 34 36 34 36 35 37 39 38 33 34 33 31 34 37 40 42 43 38 32 30 27 22 24 30 33 33 35 40 49 59 74 97
59 54 49 49 52 38 38 34 29 32 36 38 35 38 40 35 29 30 31 34 33 30 34 40 44 44 42 36 32 31 27 22 23 28 30 31 35 41 47 55 68 79 82 82
56 55 61 49 51 63 38 40 34 35 39 37 40 29 39 38 35 42 32 38 40 45 48 47 40 34 33 33 28 22 24 30 31 35 39 43 50 54 56 57 56 40 36 44
59 58 64 63 58 45 40 36 37 42 32 40 35 31 38 38 37 38 37 42 48 50 46 36 35 36 31 25 24 31 34 39 43 44 49 54 53 46 38 33 31 28 25 26
60 54 59 70 67 61 40 40 42 35 40 36 33 34 42 35 36 38 42 47 48 42 37 39 35 29 26 31 37 42 46 49 50 54 58 54 44 37 34 32 27 23 19 17
67 59 55 40 47 34 34 37 38 37 33 39 28 38 46 34 36 37 43 46 40 41 42 34 28 32 39 46 50 54 59 62 62 62 59 50 42 39 33 26 19 17 20 24
53 56 60 49 41 38 36 39 39 39 36 43 27 29 36 35 36 42 46 44 45 45 36 30 36 45 53 58 61 68 67 69 70 66 58 49 42 33 24 18 22 26 27 27
44 45 53 56 50 43 40 38 38 38 41 42 28 34 37 38 39 46 48 48 50 44 35 38 48 60 70 72 73 69 76 83 77 65 56 44 33 22 22 29 30 30 29 28
50 57 56 53 46 43 42 42 42 42 42 34 26 31 34 41 44 49 49 52 50 44 49 57 68 78 87 84 79 87 90 87 73 64 54 33 22 28 32 34 33 31 32 24

GFSCGP_700_rhum_033.txt.gz
RH
47 41 34 27 23 22 29 24 24 31 46 32 36 40 50 72 79 54 74 89 79 80 55 27 45 30 28 26 25 22 22 46 56 54 22 22 30 38 60 71 72 50 44 40
42 38 32 27 23 25 27 23 22 28 28 28 27 32 52 59 71 72 73 78 81 79 75 24 31 36 39 39 40 36 34 47 58 50 37 38 42 49 64 69 65 55 48 43
36 31 29 29 27 27 25 24 28 25 31 26 25 26 30 36 57 71 70 67 72 78 79 19 27 30 36 40 42 45 48 48 51 60 55 51 51 51 52 52 59 57 62 69
34 34 32 28 27 26 24 24 33 27 26 25 27 28 28 28 41 58 66 67 65 70 74 68 19 24 29 33 38 43 47 49 51 53 54 54 56 59 63 68 74 78 83 87
34 34 34 30 27 27 27 37 30 29 27 27 24 21 30 23 31 39 51 64 62 65 65 70 32 28 29 30 33 36 40 43 47 50 55 57 61 63 66 68 74 80 78 87
33 30 29 27 28 30 29 34 32 31 30 30 27 23 32 23 23 28 35 46 60 59 62 59 66 45 29 31 33 33 36 40 42 47 50 53 57 61 65 74 81 85 88 90
34 31 30 30 30 33 32 30 30 34 34 32 27 25 22 36 23 26 28 32 45 58 59 58 59 67 71 40 45 44 40 39 41 44 49 55 63 67 73 78 89 89 87 83
31 29 29 32 30 29 32 28 29 58 58 34 33 25 21 22 26 28 26 26 29 42 56 60 60 64 70 51 45 49 53 55 57 68 65 72 78 86 84 87 94 91 85 98
27 26 26 28 31 29 30 32 26 26 34 35 32 24 23 26 23 25 29 33 33 36 45 56 58 65 74 81 91 49 49 51 57 60 66 83 83 79 87 91 84 77 69 69
26 25 25 30 33 34 34 35 32 32 51 45 24 22 22 22 20 24 22 29 32 42 40 39 48 64 71 81 89 74 49 59 65 70 80 88 85 83 89 92 76 55 53 74
29 30 26 34 36 31 35 37 35 32 29 39 34 26 25 24 24 25 26 27 28 35 35 16 20 29 46 76 82 84 41 49 64 71 73 74 80 79 78 61 55 60 69 77
33 29 29 34 33 28 31 31 32 34 37 39 34 32 27 26 26 29 28 30 32 29 27 26 23 20 18 35 39 42 46 48 51 54 66 69 72 64 37 56 66 59 60 75
33 29 33 30 28 34 34 40 41 39 34 51 58 32 29 29 30 29 30 30 34 31 32 28 25 20 20 35 44 44 35 40 58 64 68 71 36 46 68 68 55 53 52 57
37 31 32 34 27 28 32 31 32 34 40 39 37 29 29 29 29 28 29 32 35 37 33 43 30 25 31 28 18 18 18 20 30 29 39 50 58 57 54 53 52 68 64 53
40 38 35 32 27 24 24 27 29 32 33 36 35 30 25 25 28 27 34 38 35 24 31 32 32 30 24 24 24 26 26 29 44 65 70 62 56 51 52 60 46 37 28 30
46 41 34 28 28 24 24 24 24 27 28 29 30 28 24 24 28 31 34 33 36 28 30 29 32 26 28 26 31 36 41 52 56 55 50 53 58 50 32 28 25 29 40 43
51 50 39 37 31 27 28 28 28 25 24 25 27 26 25 24 31 36 36 42 34 37 29 35 31 29 28 29 39 47 46 45 47 50 52 41 30 27 22 25 32 34 36 41
67 59 45 43 42 58 38 35 32 32 29 27 25 25 27 31 33 36 40 47 33 37 33 33 35 32 33 35 38 44 43 41 38 33 30 28 21 22 26 26 30 35 41 49
75 71 54 54 51 38 32 34 35 32 30 28 29 28 33 34 38 36 34 27 28 38 39 35 31 33 38 42 44 42 36 33 32 28 21 21 24 27 33 37 42 48 55 61
76 77 68 64 52 54 38 36 36 32 33 30 31 33 36 37 38 35 41 36 34 31 34 36 38 45 46 43 37 34 33 29 23 22 25 30 34 37 42 45 48 45 38 31
84 63 77 71 55 44 38 33 34 41 33 33 33 37 38 37 33 54 47 40 36 36 40 44 50 47 39 35 35 32 27 24 26 32 37 38 38 41 46 47 40 34 32 29
91 73 82 72 63 64 41 43 39 31 36 43 42 38 40 42 36 39 36 37 35 37 45 52 48 40 36 37 33 27 26 32 39 44 45 46 49 53 51 45 40 36 32 25
54 89 63 56 54 47 42 36 36 35 42 48 41 43 38 32 36 44 36 36 37 44 52 50 40 38 39 34 28 31 40 46 52 56 57 59 60 58 52 45 40 32 24 24
47 45 60 69 65 49 54 42 44 45 39 40 40 40 43 36 30 41 35 36 39 45 49 41 40 42 36 30 36 46 52 60 61 62 68 69 65 60 52 44 30 25 27 27
28 30 34 48 59 59 53 49 41 45 40 40 40 44 43 31 30 34 34 36 42 46 42 42 45 40 33 39 51 61 66 64 61 68 74 72 67 62 50 29 28 30 31 30
37 34 24 32 35 58 63 56 58 43 43 43 42 41 41 29 35 36 36 40 45 45 45 48 47 40 42 52 65 76 81 77 72 78 80 74 71 54 31 32 34 34 33 32

GFSCGP_700_rhum_036.txt.gz
RH
39 38 33 29 27 24 22 28 31 30 38 36 36 65 45 49 70 73 72 76 79 90 35 22 21 23 26 28 38 57 61 61 62 58 36 38 37 37 38 42 60 68 81 52
39 40 36 32 29 23 21 21 24 26 33 29 22 44 45 39 65 62 69 72 73 80 42 20 28 33 34 34 27 30 48 58 62 57 32 26 29 34 37 58 71 80 94 45
39 37 35 32 28 24 22 22 20 24 31 29 24 21 53 55 62 62 65 64 68 75 39 18 25 28 34 35 38 42 46 49 54 53 33 30 32 37 46 56 59 59 66 56
35 35 32 30 28 23 23 21 26 30 28 22 27 28 30 38 44 58 61 64 67 75 74 26 21 25 32 34 37 40 40 42 44 48 43 46 42 45 44 45 48 57 62 64
34 33 32 33 25 23 23 28 30 28 24 26 29 28 21 28 30 42 54 61 61 64 70 62 19 19 25 30 34 37 39 41 42 45 47 59 50 51 56 60 65 69 74 80
33 31 31 32 27 25 24 30 34 32 25 32 33 25 23 26 26 28 37 53 59 62 58 66 50 26 26 29 31 34 36 38 40 41 49 52 58 60 62 63 65 68 74 78
32 30 30 30 26 26 27 28 30 33 33 40 31 26 26 29 27 33 32 39 64 58 62 64 65 58 28 27 29 30 32 34 37 39 41 47 50 52 55 58 65 69 82 83
32 29 30 27 27 25 29 28 34 45 55 44 53 34 23 23 29 27 26 26 42 51 46 51 60 62 63 35 27 30 36 37 36 37 39 42 60 50 64 65 83 76 82 90
31 29 28 29 28 29 29 30 27 27 49 65 70 45 23 22 26 24 24 28 29 29 46 52 58 58 59 63 57 38 42 47 51 53 54 64 71 75 79 77 96 85 91 85
29 29 29 26 27 30 28 28 35 32 44 55 34 30 26 28 23 21 24 24 30 36 37 42 59 56 59 62 66 70 62 52 54 48 48 55 59 66 80 78 97 90 87 81
30 30 30 28 30 27 28 29 37 44 31 53 47 34 32 34 22 23 24 25 27 32 45 30 30 50 59 62 66 82 65 94 82 88 79 72 66 77 84 84 85 79 73 61
29 29 32 32 28 30 29 29 30 34 36 35 37 38 30 33 27 26 28 29 28 32 41 38 24 24 22 40 69 77 81 94 94 97 96 98 89 75 80 74 63 49 60 67
28 28 34 34 34 34 31 27 36 34 34 39 57 44 34 31 31 28 28 29 29 30 35 45 29 26 24 22 24 53 78 93 73 70 82 92 73 69 78 59 52 58 58 60
31 29 32 42 33 36 31 28 27 40 42 44 46 46 40 35 31 30 29 30 30 34 34 39 52 32 23 22 19 33 42 45 44 53 62 51 48 58 52 57 52 53 54 53
36 39 34 34 31 31 29 31 28 29 53 48 42 43 44 34 29 43 38 36 32 34 38 31 49 62 32 26 22 30 21 19 32 36 41 33 46 56 56 52 57 54 57 33
36 43 44 41 37 30 31 29 26 26 25 26 29 29 29 31 28 26 30 34 37 42 42 29 35 79 38 30 28 22 22 24 29 40 51 60 60 56 52 57 58 30 26 21
52 47 46 47 39 35 32 28 25 22 27 26 27 27 27 27 26 25 28 33 35 39 33 29 32 33 34 31 27 27 25 29 43 48 52 51 54 56 55 32 27 19 21 25
70 50 47 52 43 56 36 30 26 25 25 27 25 22 24 25 25 26 37 35 38 42 34 28 35 33 32 33 30 30 37 43 47 48 51 48 39 32 28 21 21 24 29 33
89 75 56 56 53 42 32 35 31 32 31 29 29 27 25 24 24 30 35 35 36 39 35 25 38 36 33 32 33 36 41 46 50 44 37 33 30 23 20 25 29 31 36 42
97 86 84 59 60 62 43 38 34 31 35 31 29 28 27 27 34 38 40 37 27 30 34 31 28 37 39 35 38 45 47 44 38 34 33 28 21 23 30 31 33 37 42 44
80 88 95 81 62 51 45 38 32 37 36 34 33 31 30 33 37 39 38 22 26 42 42 36 34 38 41 44 48 46 40 35 35 33 26 23 29 36 37 39 42 45 47 44
50 98 93 92 68 64 42 38 37 35 33 36 36 41 38 37 34 27 28 25 40 40 36 34 36 43 48 50 46 39 36 37 33 28 28 36 41 45 48 50 52 53 51 46
73 59 90 90 63 51 35 37 43 39 38 34 42 45 46 43 38 35 34 32 42 40 36 37 41 50 54 49 41 37 38 35 30 31 40 47 52 55 58 59 59 57 52 44
44 94 63 85 71 79 51 52 39 42 44 44 46 52 45 47 39 40 39 28 42 41 38 40 46 53 53 45 38 40 37 32 34 42 50 55 57 63 68 68 64 57 49 31
15 56 82 57 48 56 62 62 72 58 49 53 43 43 44 45 40 41 38 26 38 38 40 43 50 56 51 40 40 38 35 37 46 55 64 69 68 73 75 70 63 50 30 33
43 32 44 38 29 52 38 76 70 61 57 59 51 44 43 43 42 42 30 29 37 39 40 45 54 56 46 42 41 39 41 48 62 75 86 91 86 82 77 69 57 31 34 38

GFSCGP_700_rhum_039.txt.gz
RH
26 33 25 15 25 28 28 26 24 27 33 42 41 46 42 42 70 77 71 70 70 56 27 24 24 38 32 37 44 34 31 36 48 48 58 68 63 64 59 51 48 43 44 50
36 35 21 22 30 31 31 29 23 21 35 32 38 34 43 43 46 69 68 72 71 54 27 20 24 29 30 32 41 48 48 48 39 42 40 46 42 38 43 43 50 51 60 64
37 12 22 39 36 34 31 29 22 22 32 33 30 48 52 44 42 70 68 70 71 33 28 19 28 31 34 35 35 37 46 53 48 30 32 35 35 39 39 39 64 93 75 72
44 33 36 40 38 33 29 23 22 23 27 30 28 36 47 46 51 58 59 60 67 37 32 28 20 25 32 32 33 35 36 36 42 38 38 37 35 36 39 45 56 65 69 76
39 40 41 36 34 31 27 22 25 30 32 31 27 32 31 45 55 62 57 47 60 46 39 27 15 18 28 33 32 33 35 35 37 37 39 39 39 42 42 44 48 61 59 63
44 36 35 35 33 32 24 24 26 29 31 41 27 32 32 42 44 51 57 53 49 41 41 36 22 18 22 28 32 33 35 37 38 40 41 42 44 47 50 53 56 61 68 73
42 39 35 32 32 32 26 27 36 42 50 55 37 39 34 32 27 29 36 48 42 47 42 34 29 20 23 23 23 28 29 30 35 38 40 40 46 53 58 60 60 61 68 85
45 40 35 31 31 32 27 27 34 48 68 51 39 40 34 38 29 26 36 32 34 40 37 43 38 31 28 21 22 24 26 27 30 33 34 39 41 46 51 51 52 62 82 79
40 39 34 30 30 30 26 28 27 30 50 55 44 38 33 33 31 28 30 28 28 33 44 51 53 53 48 45 46 32 27 29 32 35 36 40 38 44 46 56 69 80 80 82
36 38 32 32 28 30 27 28 31 31 68 68 54 42 40 33 27 28 24 28 29 30 39 46 58 52 56 52 56 57 59 60 50 52 50 48 52 53 57 63 84 90 91 89
35 36 34 33 29 30 28 29 29 34 41 65 63 41 34 35 34 23 23 23 27 34 38 49 52 58 60 62 65 62 60 66 52 60 59 73 74 68 57 69 96 100 100 98
36 36 38 35 33 31 28 29 28 39 49 41 49 46 33 32 29 27 26 26 27 27 27 30 36 45 49 56 66 74 69 69 70 58 52 81 81 92 98 94 100 100 57 65
36 38 38 37 31 31 32 32 29 29 29 36 51 44 39 32 30 30 28 29 28 28 28 28 26 25 25 29 48 61 63 70 71 61 61 89 88 80 67 67 84 78 55 56
56 36 36 41 35 32 34 32 30 30 33 32 43 43 45 36 37 35 29 28 29 29 30 30 31 26 21 23 24 22 42 55 58 70 68 58 47 42 53 60 54 53 62 60
66 54 36 33 33 33 38 37 35 36 30 33 32 39 39 40 41 40 35 32 33 34 35 36 35 33 23 20 26 24 21 25 46 53 43 26 32 36 40 47 49 56 58 56
68 80 45 40 31 30 34 39 36 37 30 34 39 39 34 39 30 37 40 34 34 36 38 39 39 33 33 26 21 30 28 24 20 21 27 28 29 39 48 49 56 54 59 51
99 91 57 45 41 34 37 36 38 35 33 33 30 27 35 28 35 33 37 33 30 33 35 36 38 30 19 21 29 31 32 27 26 22 26 31 39 49 52 57 58 52 33 25
86 98 74 47 42 67 42 40 38 36 32 31 28 27 28 27 26 28 30 31 30 34 33 34 35 28 30 23 31 30 32 31 29 32 33 43 48 54 52 44 37 32 21 22
78 94 82 64 53 56 52 43 34 34 30 29 26 26 26 27 26 26 25 26 33 36 38 37 37 37 36 25 36 33 35 33 33 41 47 52 55 45 39 34 26 21 25 29
66 91 98 96 64 72 57 42 33 35 34 30 30 26 31 30 28 27 27 26 33 35 36 31 26 32 33 29 40 39 34 33 38 48 55 47 40 36 30 25 22 29 32 34
50 50 86 93 98 58 53 41 35 39 38 29 29 34 33 32 30 29 30 35 39 37 29 14 27 41 40 34 35 43 41 44 51 49 43 38 35 31 25 27 34 38 40 43
42 48 66 99 90 81 53 44 33 37 35 35 37 37 33 40 40 38 38 40 26 21 18 22 43 41 37 35 43 49 54 54 47 39 34 34 32 28 30 37 43 46 49 53
53 39 35 38 87 70 55 60 48 43 44 49 46 37 34 46 41 44 37 34 33 29 24 34 42 39 38 39 49 54 54 45 36 35 35 35 32 33 42 48 50 54 62 64
59 49 52 47 55 69 77 60 54 49 50 54 62 48 45 45 45 45 43 37 38 38 28 33 44 41 41 45 53 56 51 41 37 37 37 36 37 45 54 60 62 67 69 69
48 41 30 30 32 92 78 74 69 53 52 59 62 57 52 52 51 45 40 39 42 41 30 38 44 43 46 50 56 57 51 42 39 39 39 41 46 56 69 79 80 78 76 68
45 48 39 27 27 53 57 41 77 66 54 70 64 65 58 59 52 45 44 43 44 37 34 40 44 47 52 57 60 59 53 45 41 40 43 49 62 75 90 96 96 92 78 54

GFSCGP_700_rhum_042.txt.gz
RH
21 25 19 15 14 15 18 29 32 29 31 32 32 36 42 47 43 54 45 28 37 37 16 16 26 30 34 37 29 39 58 75 95 97 89 98 98 100 98 97 98 81 70 66
31 24 16 15 19 17 26 30 32 33 30 35 37 36 41 50 45 44 35 39 37 52 24 18 26 30 32 39 40 34 31 33 43 57 76 81 66 62 62 62 72 66 70 47
27 19 16 20 22 29 32 34 33 32 23 32 33 32 32 44 46 46 31 44 60 52 50 19 24 30 29 31 34 38 37 30 29 29 38 40 46 47 48 45 44 53 42 43
44 26 24 35 35 38 40 35 32 26 24 31 30 38 30 30 41 49 42 37 44 45 50 36 22 22 29 30 32 31 38 32 29 30 31 32 34 34 38 43 48 56 55 67
38 25 23 30 37 39 40 36 32 24 31 32 30 32 28 32 36 43 51 41 38 40 48 46 18 20 31 29 31 34 35 42 36 36 35 35 34 36 38 41 49 64 81 69
34 30 39 35 36 41 37 34 28 30 28 42 30 34 31 30 30 38 46 47 45 42 31 30 42 28 21 32 32 34 36 38 41 41 40 39 38 37 38 40 44 49 55 59
39 41 32 38 39 36 34 34 36 44 52 56 33 37 31 30 35 32 38 34 38 39 38 42 31 24 19 22 29 32 33 35 38 39 39 40 42 43 43 45 48 50 54 60
44 44 34 34 41 36 33 33 35 54 70 45 38 45 37 33 34 33 43 39 40 38 33 37 32 30 24 21 24 27 28 29 29 32 34 36 38 44 51 54 57 60 60 64
42 44 33 30 35 35 33 33 32 29 46 55 38 34 32 29 30 33 35 36 43 33 33 32 34 41 43 38 24 23 26 27 27 27 30 32 35 36 38 43 52 66 71 82
42 45 37 32 33 33 33 32 30 35 55 65 55 44 33 29 32 32 31 33 34 31 31 36 37 42 49 50 52 51 44 46 49 42 32 33 34 34 35 38 45 62 78 92
42 42 40 32 34 35 33 30 30 29 34 64 66 47 36 31 31 31 33 32 31 33 31 31 35 41 48 56 59 54 54 59 62 61 53 58 62 69 67 52 61 91 94 100
49 41 42 36 33 35 34 31 30 32 49 43 39 42 35 36 34 31 35 33 27 26 30 34 34 46 52 56 62 61 66 56 55 61 69 82 77 75 81 90 99 78 100 99
76 52 46 41 36 32 35 35 33 29 30 40 56 46 34 36 32 32 32 31 37 28 28 28 28 29 29 31 48 51 54 44 50 58 68 82 90 68 78 76 84 73 86 99
62 92 72 61 43 36 35 32 33 31 32 35 38 32 31 33 37 31 34 33 30 30 30 29 29 29 29 29 28 26 25 24 41 50 51 63 66 61 62 55 55 74 60 75
48 96 95 72 61 47 35 35 33 33 34 34 33 32 31 32 39 37 34 33 33 30 30 33 31 30 32 31 21 20 24 21 24 26 30 50 58 44 48 50 56 48 54 57
48 74 97 81 63 52 43 34 36 36 36 35 34 34 31 29 30 35 39 38 33 33 36 35 33 34 35 36 35 31 17 22 31 28 38 56 58 52 53 51 51 53 60 66
55 62 76 90 70 64 50 39 34 36 38 37 36 35 33 30 34 33 36 35 36 38 34 33 35 34 33 37 36 29 26 22 30 36 38 41 43 48 48 52 53 57 64 65
79 66 95 93 77 93 55 48 37 32 32 39 37 36 32 29 28 28 28 29 34 39 33 31 32 33 37 36 31 31 31 32 30 39 44 45 42 42 44 52 60 69 50 33
68 80 84 86 95 87 57 52 44 42 37 34 35 33 33 30 29 29 28 29 31 28 30 29 35 36 36 37 37 36 30 42 44 40 43 42 45 47 56 73 55 34 30 27
58 79 84 88 89 96 65 49 43 45 45 32 30 33 33 29 27 29 28 27 29 27 27 30 35 36 39 26 26 34 32 36 44 38 36 41 49 61 67 42 34 32 29 25
99 100 99 92 93 72 85 57 46 54 51 42 41 36 32 31 28 28 27 27 28 31 33 38 40 28 19 19 33 41 39 36 41 43 37 36 52 55 39 36 35 33 26 28
69 62 66 96 97 90 75 72 58 62 56 46 44 39 39 41 37 34 32 32 39 40 36 30 24 21 17 19 42 41 38 35 39 47 47 56 50 38 36 36 36 30 30 40
73 56 52 44 34 33 51 79 84 84 56 52 47 41 34 45 45 38 37 42 38 34 32 28 29 28 20 25 41 39 38 38 48 55 58 48 38 36 37 38 35 36 44 51
62 54 48 58 43 53 43 49 93 73 77 57 53 52 40 46 51 46 42 41 45 42 34 33 38 36 26 38 46 45 43 46 58 60 50 40 37 37 38 39 43 51 59 64
55 57 59 55 43 41 34 46 85 58 60 67 67 69 54 63 67 65 55 50 47 40 41 42 42 33 32 44 45 44 47 54 60 58 49 43 41 42 45 50 60 71 78 81
52 59 71 56 48 51 38 51 52 50 46 61 62 60 66 70 67 68 76 61 56 53 54 52 44 35 37 43 44 46 50 57 61 60 53 48 49 54 63 75 86 93 96 95

GFSCGP_700_rhum_045.txt.gz
RH
21 29 25 17 18 18 17 24 23 28 29 33 30 43 36 39 41 46 43 27 26 20 17 17 25 29 35 33 47 63 84 98 100 100 99 99 100 100 91 94 95 97 80 77
26 20 22 23 22 27 20 21 20 30 29 32 32 37 35 35 33 45 46 31 26 25 16 17 20 27 29 34 34 30 43 67 92 99 98 100 100 100 99 95 98 97 85 81
25 22 20 21 20 23 25 27 28 32 31 32 39 35 34 31 31 40 44 38 23 21 21 16 21 28 24 29 37 35 28 32 62 89 94 95 99 97 100 99 98 93 88 74
40 23 23 26 21 22 28 23 34 39 40 32 31 42 30 31 30 34 41 38 25 29 19 16 15 20 26 30 28 37 34 26 30 42 48 54 57 50 70 80 73 71 75 75
35 25 26 28 16 29 30 37 40 40 39 34 34 36 33 30 30 30 34 34 35 28 25 19 16 17 28 28 31 29 31 28 29 31 31 31 36 38 44 46 45 48 54 65
38 32 37 28 23 26 38 40 40 39 35 48 31 31 31 30 28 25 30 36 36 39 30 34 44 18 18 26 28 32 31 31 31 32 33 33 32 34 38 42 47 51 57 54
48 40 39 35 40 38 42 42 42 44 52 55 31 39 32 31 26 28 31 30 30 34 38 36 42 22 16 19 24 26 27 27 27 30 31 33 36 37 37 38 41 46 52 57
41 37 34 33 36 30 36 40 43 53 67 43 33 46 33 30 31 32 33 28 30 35 38 38 42 45 40 20 20 25 25 28 26 28 31 34 37 40 42 41 41 42 43 46
41 44 31 29 30 32 34 43 36 37 44 56 35 36 30 30 28 28 29 34 30 29 36 34 36 38 51 52 33 22 24 26 27 27 30 33 37 39 41 46 48 46 49 53
40 44 38 39 38 38 38 36 36 40 54 69 52 48 32 29 28 25 32 32 29 30 33 28 28 36 38 44 50 55 49 28 28 29 30 31 35 40 44 49 53 59 70 82
48 43 42 34 37 39 39 39 39 37 37 46 48 39 29 29 29 35 33 32 29 27 26 26 29 32 35 38 48 52 53 55 57 54 53 59 61 62 56 69 70 65 78 80
68 57 49 45 40 36 34 41 37 38 42 42 36 36 33 32 34 34 33 36 30 29 32 31 30 31 34 36 40 50 55 56 54 52 52 53 66 95 98 96 82 100 96 98
62 82 68 52 44 42 40 36 36 41 40 38 48 37 30 32 30 34 31 31 32 31 29 30 32 34 28 29 35 40 50 50 52 53 52 52 52 60 68 74 73 79 77 72
64 63 70 94 97 90 79 56 40 34 38 41 37 36 30 32 31 29 33 35 31 30 29 29 30 29 29 30 30 27 25 27 30 33 36 41 45 49 58 65 73 74 77 74
58 68 66 58 70 77 77 68 52 48 36 36 37 35 32 29 30 29 30 34 34 33 30 29 30 30 32 31 30 32 27 24 30 28 27 25 33 50 54 62 65 73 61 63
78 64 65 61 48 52 68 71 57 53 48 43 41 36 33 32 32 32 30 33 35 35 33 31 30 32 32 34 32 33 32 32 31 28 24 35 35 41 52 58 53 53 56 61
74 79 72 65 54 50 46 60 67 55 44 44 41 40 36 34 33 32 30 32 35 38 37 37 34 33 34 34 33 34 37 37 30 32 24 38 44 43 51 57 57 52 51 58
78 84 83 63 56 71 25 21 48 62 54 45 38 38 41 37 37 34 31 30 30 37 34 35 35 33 31 30 32 33 36 38 33 33 29 37 46 49 49 53 53 52 52 56
71 72 79 70 91 51 24 18 21 68 65 51 42 34 35 46 38 35 33 29 26 27 28 29 36 30 33 32 32 35 37 39 35 28 34 44 44 47 48 46 46 48 54 68
84 89 95 98 88 80 18 19 25 41 71 59 48 41 34 31 33 39 34 30 28 28 28 26 28 29 30 31 34 38 40 30 30 37 36 44 49 45 48 56 63 69 79 48
97 99 98 100 95 71 45 34 29 72 84 65 53 50 43 31 28 31 36 32 27 27 28 27 28 28 30 34 41 39 23 27 41 46 45 42 50 57 58 76 82 60 35 32
72 79 94 100 98 89 43 42 41 50 94 94 65 50 43 45 38 33 35 34 31 29 27 30 32 32 36 44 33 23 28 39 47 48 48 45 50 61 79 67 42 35 34 35
71 66 59 58 51 43 48 45 50 48 59 92 87 67 48 44 44 41 40 39 35 33 35 37 37 35 29 27 27 24 31 41 46 49 52 49 58 72 69 47 38 36 37 41
64 54 50 52 48 40 36 51 42 36 68 82 68 79 58 53 49 44 35 43 43 42 42 40 38 36 37 38 35 34 46 56 57 54 54 62 70 69 54 44 41 41 45 51
60 67 62 57 45 42 40 56 48 57 72 85 71 67 82 65 52 48 43 47 49 47 50 47 46 48 48 43 37 44 53 61 62 58 58 69 71 62 54 51 51 53 58 67
59 63 64 62 63 69 69 64 57 67 72 77 73 69 86 78 62 51 57 53 61 66 66 63 58 60 59 53 47 48 51 59 63 64 69 77 73 68 64 64 65 70 79 88

GFSCGP_700_rhum_048.txt.gz
RH
24 23 20 18 20 21 22 26 26 18 27 30 30 29 31 38 39 36 39 48 32 23 20 14 20 28 36 34 57 85 97 95 98 100 100 100 98 95 98 99 98 97 97 83
31 22 21 24 24 27 28 29 18 25 25 34 30 30 29 29 34 32 36 45 42 34 23 16 19 27 30 39 33 49 88 97 100 100 99 100 100 100 99 99 96 96 98 94
23 25 23 28 29 32 29 28 15 18 26 34 37 28 33 27 32 30 31 37 44 32 29 20 18 22 28 31 38 32 41 71 98 100 100 100 100 100 99 98 97 90 96 96
30 27 31 25 24 26 23 19 17 18 32 43 41 45 26 28 27 27 30 33 40 27 22 19 15 19 27 28 28 37 27 35 62 78 93 83 98 99 99 98 94 90 91 94
29 18 35 34 21 26 23 21 23 31 43 45 41 47 36 27 25 27 26 26 34 36 30 25 19 18 26 26 28 28 33 28 29 35 39 48 48 64 88 90 96 98 98 96
38 29 36 30 27 30 25 32 39 44 44 57 39 39 34 32 29 26 27 25 31 36 36 26 18 18 19 24 25 25 27 29 29 30 30 31 36 40 50 49 56 62 71 70
54 43 48 43 45 42 34 37 48 49 60 64 35 38 34 28 27 24 27 24 26 31 39 35 27 16 15 17 25 25 24 25 29 30 31 32 33 35 38 42 44 45 45 46
48 41 45 46 38 41 46 43 47 58 69 45 38 46 30 27 28 29 30 31 27 28 31 40 34 33 25 19 17 23 25 27 25 28 30 32 34 35 36 37 39 42 47 52
44 41 29 30 26 30 39 48 42 44 49 60 39 35 33 30 29 28 27 30 28 28 28 31 40 42 42 30 27 22 20 26 26 27 31 32 34 36 39 40 39 39 40 42
42 42 37 36 37 41 42 38 44 45 54 64 51 49 33 29 29 28 30 27 31 32 30 30 31 34 43 34 35 40 46 41 26 26 29 32 34 35 38 41 44 44 42 39
40 41 38 36 43 42 42 47 44 43 42 58 58 42 32 29 28 30 34 26 32 31 29 29 27 27 35 38 39 43 50 48 51 47 36 33 36 36 42 44 47 53 63 62
65 60 54 47 40 40 43 44 44 43 45 50 47 42 33 31 33 32 32 29 32 30 28 25 25 28 32 32 34 35 39 48 51 52 55 53 58 64 60 65 74 91 81 94
69 77 76 62 54 50 51 48 58 53 42 43 58 46 36 34 33 30 27 31 31 31 32 30 29 30 30 32 34 33 38 42 50 50 53 50 48 48 52 60 78 90 77 89
53 64 69 87 78 75 82 71 62 72 76 54 46 44 39 37 36 33 31 29 32 35 34 33 29 28 28 32 28 30 29 24 30 32 38 33 34 35 44 56 69 86 75 80
60 49 56 59 61 61 57 50 63 59 58 71 65 56 47 40 37 34 32 30 30 30 33 31 32 29 30 30 32 31 31 31 24 31 29 29 23 29 30 40 49 53 66 69
68 66 53 51 48 48 42 57 44 37 39 49 58 57 45 39 38 36 33 32 32 32 32 33 33 32 30 30 31 32 33 33 34 33 35 32 32 26 32 34 38 48 55 55
71 82 72 72 59 68 57 31 33 30 24 29 44 57 55 42 37 42 37 34 32 32 32 36 37 35 33 31 32 34 34 35 36 38 37 37 33 29 32 42 43 50 54 56
74 86 82 78 78 81 31 32 25 23 20 16 16 18 58 44 38 36 41 37 35 33 30 33 34 37 39 36 34 31 29 32 33 37 39 39 37 24 39 43 48 51 55 58
59 100 92 85 81 52 25 22 22 16 14 15 12 21 56 50 42 36 36 41 38 32 29 28 31 35 34 35 35 34 34 32 32 38 42 40 35 29 48 46 48 56 61 63
64 83 96 100 97 85 23 33 40 41 34 45 28 33 54 61 45 39 36 32 39 35 30 29 28 27 29 30 34 33 34 34 36 40 44 44 35 37 44 51 52 54 58 60
85 90 93 94 93 70 38 35 48 67 49 52 53 57 54 60 64 56 43 35 31 35 36 29 28 29 27 29 31 30 32 34 39 46 46 39 44 49 46 44 56 56 52 63
80 91 98 90 97 83 37 43 51 48 46 52 65 80 68 62 59 55 50 37 30 29 32 34 30 28 29 28 29 33 34 40 44 46 40 37 52 49 46 42 44 64 91 94
80 68 58 62 41 41 50 43 42 48 60 60 89 71 77 76 76 62 48 45 38 35 34 34 33 32 30 32 35 40 45 45 43 40 42 53 52 53 54 56 72 97 88 59
71 66 65 64 58 55 41 35 45 46 57 57 87 87 88 95 97 83 64 45 44 38 36 36 37 38 35 35 35 35 39 40 40 48 58 68 64 62 60 74 94 83 59 49
73 72 67 60 54 50 49 59 49 45 51 61 68 90 87 98 97 91 77 63 48 43 44 40 42 45 46 47 50 51 50 49 57 63 70 72 71 69 75 84 80 69 62 60
80 77 71 62 67 65 62 68 64 64 58 69 76 91 86 97 99 98 87 69 63 54 50 47 49 54 53 54 57 60 61 62 69 70 71 75 75 80 91 90 84 81 81 82

GFSCGP_700_rhum_051.txt.gz
RH
32 44 33 27 22 20 22 20 21 19 22 26 28 30 27 31 35 33 34 39 49 45 23 18 20 28 34 37 73 100 99 99 99 100 99 100 98 100 100 99 90 95 93 81
47 34 28 30 24 22 23 22 20 17 22 24 27 31 27 29 28 32 34 32 46 48 29 20 20 27 30 37 37 63 94 100 97 100 100 99 99 100 100 97 92 94 88 85
18 25 26 28 26 27 25 31 22 19 21 26 26 33 26 26 30 28 30 31 36 43 42 25 20 23 29 30 34 31 60 93 99 98 100 100 100 100 99 98 91 86 90 93
19 23 30 25 24 27 30 27 27 25 25 29 37 40 35 25 23 25 25 28 31 37 43 21 17 20 27 29 29 29 29 54 99 98 100 98 100 98 98 100 99 94 86 93
21 13 32 38 27 27 27 31 27 25 28 37 45 45 37 27 23 24 24 27 28 29 40 33 22 17 25 26 27 29 27 29 49 72 83 100 99 100 100 99 100 100 100 98
36 24 28 22 25 28 35 32 32 41 47 53 49 43 37 32 22 22 25 23 24 26 37 39 25 15 15 22 22 23 26 27 28 34 49 68 86 83 92 97 100 99 100 86
32 38 43 40 41 40 45 43 44 50 56 48 39 44 35 31 26 22 23 24 28 32 36 40 31 19 13 16 20 17 20 24 27 28 30 34 43 53 58 70 73 77 82 84
43 49 47 48 49 34 35 47 42 48 54 40 46 44 32 26 26 26 24 29 30 31 32 38 40 33 25 16 18 21 17 19 22 24 29 31 32 34 36 40 44 47 50 65
45 44 34 36 33 39 51 54 37 48 51 54 43 38 32 31 29 29 26 25 25 28 30 32 39 35 36 32 21 18 21 22 20 24 25 26 29 31 34 36 38 41 46 48
40 43 40 36 46 46 46 39 49 49 48 50 47 44 36 30 27 22 27 28 26 29 30 32 33 38 43 43 38 34 28 22 23 25 27 27 30 32 35 37 39 39 39 40
48 41 46 44 44 41 51 53 46 46 44 45 49 43 32 30 32 31 31 34 32 29 33 34 32 36 40 49 50 40 39 44 47 37 26 25 26 28 32 36 39 42 44 46
43 45 45 42 39 44 48 48 48 52 48 53 52 45 34 33 34 34 32 28 28 27 30 31 31 32 30 38 41 34 41 42 46 50 53 51 49 43 44 49 49 51 53 54
76 74 68 58 53 47 47 55 59 61 55 51 57 46 40 40 40 39 34 30 29 29 32 31 29 25 27 30 32 37 40 43 47 49 53 56 58 54 55 54 52 54 69 71
73 77 74 64 68 67 70 71 68 62 69 66 64 62 51 38 36 35 35 34 33 32 30 32 32 32 29 30 31 32 34 34 36 44 49 51 50 49 41 48 57 56 69 61
56 62 61 60 53 55 60 60 53 53 50 62 52 41 41 44 42 38 37 34 33 33 30 29 29 33 30 30 28 32 30 30 27 24 26 27 25 26 27 23 28 37 53 52
86 62 55 47 38 38 36 38 43 38 39 45 29 29 25 22 36 38 37 34 33 32 32 31 30 33 32 32 32 30 31 32 31 32 27 32 32 33 33 32 26 31 32 35
80 70 71 67 54 54 55 27 31 21 17 24 24 17 14 18 16 31 37 35 35 36 32 33 30 31 33 34 33 30 31 33 34 33 35 36 36 36 36 34 30 25 38 40
72 99 92 84 80 72 31 20 20 30 21 16 17 21 24 16 26 19 26 36 35 35 37 35 34 32 31 34 36 33 31 34 36 36 36 38 38 38 38 40 31 26 45 49
55 79 84 84 89 56 28 26 27 24 17 25 34 57 60 53 53 50 51 39 37 37 38 37 34 31 30 30 33 37 40 40 39 32 33 34 38 40 42 41 35 30 44 49
68 67 85 99 80 76 45 38 37 47 38 46 47 46 48 52 55 61 56 46 39 37 36 39 36 31 30 31 35 34 34 36 38 35 36 38 45 48 45 44 47 31 41 50
82 83 88 99 92 70 45 43 60 58 53 53 57 45 42 56 82 98 68 56 47 43 38 36 38 35 35 29 29 28 31 31 34 36 36 38 51 59 57 53 45 42 46 48
89 98 95 98 98 88 41 59 57 56 49 49 52 54 39 46 66 96 93 64 52 46 40 34 31 36 34 31 30 29 28 34 35 36 38 42 64 70 59 50 48 55 49 46
86 68 69 72 59 37 54 61 68 56 44 38 44 56 57 52 56 74 99 75 52 49 48 37 32 32 33 34 31 30 30 33 33 36 39 56 70 62 54 52 57 54 49 51
69 59 62 59 56 46 46 57 61 56 45 36 38 58 53 62 60 71 99 94 62 56 52 46 41 36 34 33 34 33 32 36 45 56 61 60 52 51 49 57 66 62 70 99
62 68 69 67 67 63 63 58 55 67 74 72 73 72 66 68 80 88 99 100 90 82 80 69 58 43 40 43 42 42 44 46 49 50 48 50 56 67 71 70 70 72 97 100
70 68 70 76 76 71 66 66 68 62 54 45 65 71 75 66 91 96 95 98 99 98 99 80 82 77 65 57 53 54 55 55 59 58 58 67 74 70 72 76 83 93 96 93

GFSCGP_700_rhum_054.txt.gz
RH
8 44 39 29 32 32 26 27 23 20 26 27 30 29 29 34 29 32 32 34 36 49 46 18 15 23 29 32 41 76 99 98 98 100 95 96 98 98 100 100 100 93 92 93
65 50 41 40 37 34 30 29 25 23 32 28 22 27 28 32 28 29 31 32 33 39 46 29 14 19 26 32 29 35 80 93 99 96 100 100 98 99 100 100 98 91 94 100
47 38 44 51 45 40 34 30 29 28 32 32 30 28 27 28 26 28 27 28 29 31 41 44 20 17 23 26 33 28 49 96 99 100 99 99 99 100 100 98 94 95 97 95
46 36 47 52 40 38 33 34 37 34 33 21 30 25 23 28 27 28 24 26 26 30 36 36 18 15 23 25 26 28 32 73 91 97 98 98 99 99 98 99 97 98 96 88
54 34 43 43 40 36 34 36 41 36 35 29 28 29 22 24 29 25 25 28 25 28 28 38 27 16 18 22 22 26 26 40 66 96 96 98 100 99 99 100 99 96 92 96
47 36 43 39 39 41 41 42 42 42 34 34 26 26 21 20 26 25 24 29 25 24 26 35 37 25 14 19 18 23 26 27 34 52 84 84 99 99 98 98 98 99 98 93
50 48 48 31 37 45 39 39 34 35 36 33 28 32 25 30 29 28 27 26 30 26 33 36 36 32 19 14 17 16 22 25 27 28 34 43 52 85 96 95 99 100 99 98
34 41 54 47 46 44 44 37 30 35 36 26 41 35 31 31 26 27 28 26 30 31 31 30 38 39 30 15 18 16 16 20 23 25 28 30 33 36 44 60 64 77 88 95
33 32 32 51 36 39 44 47 40 34 48 40 34 35 33 30 29 28 27 28 31 35 28 29 31 37 39 30 15 18 17 17 21 23 23 26 29 29 30 33 36 42 48 51
45 41 46 53 59 54 49 43 47 44 41 41 28 32 30 30 30 30 29 33 32 35 30 29 30 33 38 34 34 18 19 22 21 23 23 25 26 29 32 33 34 35 37 38
52 54 55 53 53 49 52 49 44 40 37 36 34 30 34 35 41 35 37 34 37 30 32 34 33 32 33 39 41 39 26 20 21 22 22 23 25 27 30 31 34 36 38 40
47 50 49 43 46 47 46 43 44 40 40 43 46 33 36 36 36 36 34 35 32 29 31 33 34 34 35 40 45 43 42 40 37 33 26 24 25 26 27 28 32 36 34 37
80 52 39 42 46 45 56 61 58 60 56 46 52 38 41 40 35 36 34 38 33 30 30 30 34 34 34 37 38 42 39 36 45 49 50 51 46 34 32 31 30 34 44 51
86 77 54 32 37 52 69 68 65 62 57 47 45 43 49 44 36 40 39 37 34 31 30 31 31 33 34 34 32 28 31 34 39 45 47 51 53 53 56 54 56 57 59 60
92 90 70 65 66 62 63 62 60 59 60 56 48 47 46 42 38 37 35 33 32 30 32 30 30 30 30 30 33 33 31 32 37 37 35 38 45 51 56 54 56 55 52 59
58 63 71 62 53 62 62 58 55 54 51 51 49 47 45 41 38 24 28 37 38 36 34 33 31 30 32 33 33 32 32 32 32 31 30 24 23 33 32 26 27 30 28 28
87 83 60 45 51 50 45 44 43 48 46 42 36 33 37 41 45 32 18 15 34 36 35 34 32 32 31 32 33 33 33 33 31 31 31 31 25 27 26 30 33 34 35 31
80 89 85 59 66 55 34 28 22 28 35 37 38 39 54 64 74 24 12 13 14 29 35 34 34 32 32 30 31 34 34 33 31 31 34 33 33 30 33 35 36 37 38 40
60 99 85 74 59 46 46 34 34 38 29 27 57 63 66 55 40 61 77 65 47 38 34 36 35 34 32 34 34 32 33 36 34 33 34 36 35 34 35 36 36 36 40 41
73 90 85 89 58 56 44 22 26 25 44 71 73 80 80 62 71 69 42 57 66 69 67 45 38 37 37 35 33 33 31 35 36 37 37 36 38 38 37 33 35 39 46 44
100 100 89 76 83 65 48 53 40 66 73 60 54 64 72 86 90 58 40 37 62 66 62 63 51 38 38 37 33 31 31 32 34 38 37 40 42 40 39 45 45 49 59 53
93 89 87 75 84 82 63 46 65 87 65 54 42 42 39 44 57 55 44 40 51 57 60 67 57 50 36 37 37 34 35 31 31 31 32 34 35 42 41 46 53 64 71 63
92 74 69 68 67 68 71 77 76 68 59 52 50 39 38 33 43 53 50 51 45 56 77 71 66 52 46 38 37 37 37 36 31 31 30 33 34 40 43 56 72 79 68 80
76 82 88 82 72 66 73 74 46 47 50 52 68 66 65 74 71 66 66 63 64 69 90 86 79 64 51 41 36 36 38 36 34 33 31 32 36 44 57 70 72 82 73 70
72 78 84 75 74 72 80 56 50 61 58 62 66 64 51 48 64 64 65 67 66 72 98 98 97 86 74 59 46 37 34 35 37 38 38 41 45 58 72 74 73 73 77 78
80 78 83 76 79 79 66 72 65 68 69 68 68 62 60 74 74 71 68 63 69 72 91 98 100 99 95 86 74 66 62 65 64 68 71 65 60 62 76 83 93 91 95 99

GFSCGP_700_rhum_057.txt.gz
RH
23 32 38 41 38 32 29 25 23 24 20 22 23 22 23 25 26 32 46 49 62 67 47 44 26 15 18 19 26 54 67 85 91 89 93 98 100 100 99 99 88 98 95 93
41 36 30 31 31 29 28 28 26 24 21 25 21 18 20 21 25 29 39 48 55 68 49 41 40 20 17 18 25 26 62 82 96 99 87 98 100 99 100 100 98 94 94 95
48 33 43 38 35 30 30 30 27 26 23 29 23 19 20 20 22 27 35 38 44 61 63 36 37 28 16 18 18 26 37 86 95 98 95 98 99 100 100 100 99 99 99 93
77 36 43 42 37 37 34 31 30 28 27 25 21 19 18 20 22 27 32 32 40 49 57 35 34 22 15 17 16 21 26 56 93 94 99 98 92 91 97 99 100 99 99 94
59 43 36 41 37 39 35 33 30 31 30 28 25 22 22 20 20 22 23 27 36 47 57 28 33 29 21 13 16 16 22 32 68 97 90 98 93 95 100 100 100 100 91 94
54 56 52 45 40 35 32 33 33 35 32 32 29 24 20 20 18 22 21 21 26 44 55 43 27 35 31 17 14 13 18 24 37 63 86 94 93 99 98 98 99 98 91 96
37 54 50 51 44 36 34 34 33 35 35 35 28 26 23 22 24 24 23 22 26 36 47 51 32 35 34 23 13 15 15 18 22 31 55 73 89 98 100 99 99 99 90 88
36 44 46 51 45 36 35 35 32 39 40 28 27 26 22 26 28 28 27 24 28 39 47 32 31 35 38 32 14 13 12 17 18 21 28 38 57 66 86 100 99 100 100 100
33 24 34 42 46 45 40 38 32 32 37 38 26 29 27 30 27 27 26 26 28 35 47 34 29 29 32 38 30 15 13 14 18 21 21 22 23 29 33 49 72 66 74 88
40 33 25 36 49 47 42 38 32 36 44 46 29 31 34 27 27 29 28 28 28 30 36 46 39 30 30 34 38 27 16 14 15 20 22 23 26 27 29 32 30 35 45 57
44 48 40 42 46 42 43 47 45 36 35 38 40 29 27 35 40 40 39 31 37 41 43 44 51 57 33 33 37 34 24 18 15 13 19 22 25 28 30 32 34 35 38 41
62 56 44 58 42 45 44 44 50 40 46 36 41 38 38 41 41 40 40 39 39 37 38 43 44 35 37 36 36 38 38 28 22 19 17 17 20 24 27 28 30 33 35 38
86 54 47 45 51 49 42 46 47 47 45 59 55 41 39 39 40 41 42 41 41 41 38 39 38 32 35 35 37 41 43 44 41 31 26 24 21 20 20 21 24 28 32 35
98 80 44 38 43 37 44 49 48 47 49 47 52 45 40 43 40 38 37 43 47 46 42 39 41 43 40 33 34 39 45 42 45 45 42 42 43 42 43 38 27 28 29 31
97 89 75 44 55 52 46 52 53 51 47 46 44 46 38 39 39 34 35 37 31 37 41 40 47 48 48 49 32 31 35 42 33 36 35 35 39 45 50 52 51 48 51 53
96 96 92 84 58 56 54 52 47 43 41 42 40 37 35 36 40 38 39 32 29 29 30 33 32 37 42 52 54 38 34 34 36 30 29 33 38 38 43 50 55 60 61 57
78 84 98 86 66 56 49 52 51 49 47 45 42 37 34 37 36 41 47 56 60 46 28 33 33 35 36 36 52 40 38 34 34 34 38 40 37 30 30 23 32 48 49 43
84 72 76 82 71 83 44 42 40 44 41 38 35 34 40 48 54 54 52 72 82 47 19 22 32 33 34 38 36 33 37 37 35 34 33 33 33 30 31 30 24 25 24 27
85 80 72 60 54 44 36 38 37 36 29 32 34 49 55 60 64 54 80 74 44 57 41 21 19 29 34 36 39 38 37 34 33 35 35 32 30 31 31 32 30 26 28 32
82 86 82 71 58 49 39 42 51 45 32 48 64 68 68 69 66 55 69 46 36 36 35 34 34 46 50 37 37 39 39 36 35 34 33 36 33 33 35 36 36 30 29 31
79 79 75 66 60 47 40 51 54 53 58 83 80 79 81 77 75 84 91 51 40 38 31 28 29 37 52 55 40 38 38 39 38 38 36 33 38 37 36 37 38 36 34 30
74 83 77 69 73 60 58 58 58 77 100 99 95 82 53 86 88 85 86 48 40 42 44 39 36 31 37 54 55 46 38 37 39 39 38 35 33 37 37 39 40 46 48 45
81 71 66 59 59 76 71 76 96 91 92 69 56 46 50 56 60 85 99 81 60 50 50 50 45 53 44 51 61 54 52 39 36 38 39 38 37 35 34 39 41 46 50 50
77 89 84 84 63 89 76 99 84 72 51 42 41 44 50 64 56 48 47 48 49 57 55 52 55 56 67 81 77 63 51 48 41 36 36 38 37 37 37 43 50 53 57 71
70 86 70 77 77 76 70 84 67 54 43 39 42 49 54 62 64 57 54 59 58 61 61 61 52 52 59 97 85 72 60 57 47 45 46 39 38 43 53 55 66 70 66 74
72 70 78 75 83 79 94 98 75 51 40 40 39 42 48 46 48 49 56 62 68 56 60 61 49 54 83 87 99 99 98 97 92 79 70 59 46 64 80 59 70 92 98 99

GFSCGP_700_rhum_060.txt.gz
RH
76 38 34 52 47 45 34 29 27 25 25 23 23 23 20 19 24 29 32 41 43 57 72 69 38 37 14 14 17 23 48 71 77 77 80 84 89 95 100 100 100 99 96 76
62 49 26 34 45 43 40 36 31 28 24 23 21 22 20 19 21 23 25 31 43 52 66 68 33 42 19 12 17 20 25 54 72 81 78 68 90 100 100 99 98 97 80 82
94 50 40 34 30 36 36 35 30 28 26 24 24 26 25 18 18 20 25 28 39 48 61 63 32 37 21 12 17 17 23 40 74 88 81 79 98 98 98 99 100 99 96 86
98 68 64 72 40 36 34 31 28 29 28 26 24 25 21 19 19 19 22 26 33 37 53 62 31 32 26 17 14 14 20 28 59 83 84 86 85 90 91 97 98 98 97 92
98 91 94 68 56 43 40 34 36 33 31 30 27 26 23 20 19 19 21 25 30 32 40 59 44 26 33 29 12 13 15 24 40 75 81 88 91 86 100 99 99 99 99 92
77 91 89 57 42 49 39 37 40 37 34 36 31 29 26 22 19 19 20 21 24 30 40 54 66 32 27 33 14 11 12 19 25 48 77 88 89 90 92 99 100 100 100 99
66 70 58 70 64 45 41 38 36 43 44 44 32 29 28 24 21 22 22 22 22 29 39 52 66 46 32 34 22 10 9 14 19 25 47 78 86 91 94 95 97 99 99 99
72 69 54 56 59 47 45 42 37 56 56 36 30 28 26 24 22 23 26 25 26 32 40 46 59 56 34 35 36 15 12 10 16 18 25 45 70 88 91 100 100 100 99 100
65 53 51 60 66 50 53 55 37 37 43 49 45 28 25 24 27 25 25 25 25 27 35 46 60 60 31 29 34 37 16 12 12 17 18 19 27 46 60 79 90 100 100 100
48 57 43 40 48 55 54 53 47 40 53 62 38 29 27 27 28 26 26 25 27 30 36 45 50 62 47 34 29 38 33 16 13 15 17 19 20 20 27 33 39 49 74 90
48 47 51 36 38 46 51 56 67 59 38 52 54 47 48 38 35 34 37 37 36 37 39 44 48 52 56 56 33 32 39 32 18 15 16 19 21 25 27 26 25 26 32 38
75 53 47 62 52 42 44 46 49 59 62 45 44 45 48 48 39 36 39 39 39 38 38 41 39 42 60 67 51 36 36 40 32 20 18 16 20 23 26 29 31 33 34 36
93 66 58 50 57 68 52 53 47 53 81 99 71 64 46 40 40 38 39 39 41 43 42 40 40 48 44 59 56 46 37 39 40 38 31 21 19 17 17 21 27 29 30 31
94 96 79 53 67 94 79 51 59 65 93 96 94 68 67 56 44 40 36 40 45 43 45 46 42 44 54 70 64 49 37 37 45 45 46 43 34 28 28 25 22 22 23 25
76 97 90 73 68 50 67 65 54 58 76 94 67 62 69 76 56 45 39 36 37 38 50 42 40 39 47 53 66 87 79 50 34 46 51 45 46 43 41 42 44 44 37 29
92 92 93 85 76 58 51 62 92 68 44 46 58 56 57 68 38 40 38 36 41 58 69 37 30 29 36 36 48 56 70 89 71 41 38 45 50 46 37 40 43 48 51 52
93 95 94 87 83 66 53 50 57 72 43 40 40 38 40 40 39 38 42 42 59 47 44 37 32 31 30 37 42 51 50 51 77 82 40 35 40 43 36 36 41 44 47 53
86 81 96 93 96 78 48 42 41 46 44 44 44 46 43 42 48 52 53 66 62 60 53 37 31 31 27 23 29 36 53 51 53 73 65 39 36 36 39 42 40 44 37 28
84 78 89 97 81 89 62 45 39 40 43 40 37 39 45 57 47 71 82 78 81 64 41 28 28 27 25 23 23 22 32 40 48 52 67 75 41 37 36 36 35 37 32 31
80 81 80 75 78 83 47 57 53 40 37 38 50 59 65 66 69 91 91 91 75 48 32 23 15 16 16 20 22 22 25 41 47 42 43 49 77 73 40 38 35 34 32 33
78 90 83 81 78 63 45 43 46 46 71 69 74 79 82 75 83 76 79 89 62 33 24 19 14 13 11 22 22 20 20 23 40 55 52 44 45 54 46 37 39 40 37 35
78 88 87 76 70 64 46 54 54 76 87 83 90 95 74 56 81 88 95 96 66 50 43 37 28 24 24 24 17 19 26 32 26 41 55 55 45 42 43 41 40 39 43 41
93 74 70 61 61 67 64 69 82 100 90 87 87 63 52 55 51 54 51 49 46 42 40 37 35 34 37 33 31 32 24 27 42 39 53 56 53 46 46 40 43 43 43 54
86 88 67 84 61 58 86 99 85 84 88 73 56 46 44 46 52 52 50 44 51 51 55 55 52 46 48 50 41 37 41 48 41 69 67 55 53 53 61 56 51 53 52 60
98 95 86 85 97 85 94 98 91 74 68 63 49 39 39 38 37 35 36 43 47 56 58 59 57 42 48 51 42 43 50 73 73 87 89 66 57 62 66 72 78 56 68 88
94 97 98 98 98 98 97 99 93 83 74 50 40 43 44 47 45 48 52 60 66 67 59 55 45 38 56 58 47 52 63 77 83 91 100 100 97 94 98 97 91 100 85 88

GFSCGP_700_rhum_063.txt.gz
RH
60 73 66 60 59 51 49 41 42 36 33 34 34 25 25 23 22 26 30 32 34 37 52 56 46 33 25 16 12 16 20 38 81 90 92 93 89 94 99 99 100 100 99 100
88 77 74 52 45 48 46 48 44 35 33 39 31 29 25 23 22 22 24 29 32 36 51 51 46 35 26 18 12 16 17 23 52 77 91 90 95 89 99 99 100 98 99 100
94 82 70 41 30 45 51 45 39 41 33 33 31 26 24 22 21 19 22 23 28 36 44 46 51 36 28 24 12 14 13 20 31 66 83 77 67 77 89 96 100 98 98 100
89 83 98 52 67 43 32 35 39 34 33 32 29 31 25 25 24 18 18 20 26 35 44 48 50 44 29 30 14 11 11 17 26 51 77 75 69 64 92 99 100 100 100 99
70 84 89 85 69 47 58 38 38 41 44 33 32 31 29 26 26 22 18 19 25 26 31 40 39 43 32 30 22 10 9 14 19 36 69 77 74 69 93 98 100 99 98 100
73 84 86 82 77 78 71 73 68 54 46 48 41 37 31 28 25 24 21 19 20 24 29 35 38 44 41 28 29 11 8 10 15 20 44 66 74 76 82 98 98 99 100 100
51 52 72 96 96 84 76 92 64 59 60 60 39 36 34 26 24 25 22 20 21 26 31 35 39 40 40 31 34 13 10 8 12 15 28 56 73 81 81 84 84 96 100 99
47 71 65 73 66 86 78 85 77 64 67 48 36 37 33 26 22 24 24 22 22 27 32 38 46 46 30 31 37 31 13 10 10 13 16 28 52 74 80 83 86 87 95 100
54 62 68 62 55 66 80 71 62 67 85 66 52 46 33 28 26 26 24 26 25 32 40 39 34 47 37 27 28 40 33 16 10 12 14 16 21 36 57 75 77 93 95 99
49 56 52 59 68 76 81 64 77 98 91 95 49 49 44 31 26 25 25 26 28 28 30 36 41 48 48 37 28 29 40 31 16 12 14 16 18 20 27 40 42 54 70 74
64 57 48 48 46 66 71 75 97 97 77 71 69 56 49 40 36 32 31 35 36 41 44 50 52 54 56 54 35 39 41 42 29 17 13 14 18 21 22 22 24 29 42 44
78 82 61 45 43 49 66 61 77 99 86 65 54 62 53 46 41 40 40 39 40 40 41 42 49 72 70 60 51 50 44 44 42 28 18 16 15 18 22 26 28 26 26 27
69 82 74 62 56 51 60 52 85 88 78 95 99 64 74 73 62 48 43 43 43 41 42 42 50 58 66 82 76 67 63 50 51 46 36 21 19 18 16 18 25 30 32 34
59 67 96 90 85 93 73 74 67 85 95 90 91 79 83 70 67 59 57 48 47 44 44 43 45 51 69 67 71 79 92 83 68 49 51 47 37 25 21 21 21 22 25 29
71 66 73 95 89 91 98 89 78 89 88 99 89 95 100 76 62 69 46 48 38 40 46 44 43 45 55 70 77 76 65 50 50 76 66 52 55 51 49 38 28 24 24 24
82 83 92 80 75 75 88 85 79 95 86 95 92 99 99 100 97 74 60 58 49 41 34 27 31 30 41 50 59 75 80 80 63 46 42 54 50 48 48 53 57 55 47 40
87 95 91 94 86 79 67 55 63 65 72 92 97 85 64 92 84 68 47 50 46 42 34 26 22 24 28 30 35 47 57 73 91 93 60 46 75 82 50 45 47 52 55 59
90 86 88 79 67 95 61 46 50 50 78 80 64 72 59 81 80 52 66 56 41 32 35 46 43 32 25 20 19 22 24 36 61 69 76 74 64 54 73 59 48 42 41 46
46 51 79 65 87 74 54 49 40 61 58 48 48 51 58 62 57 65 73 65 60 64 68 58 49 30 15 13 15 17 18 18 18 20 34 58 71 66 57 56 54 46 51 44
31 60 80 85 80 90 74 66 46 43 60 57 52 54 58 60 53 89 87 81 76 73 70 60 48 32 14 12 13 19 20 20 19 22 20 23 32 47 56 55 53 44 52 57
80 85 88 89 88 75 63 81 80 53 89 80 64 67 68 63 78 89 83 70 61 58 38 28 21 15 13 12 12 12 11 10 11 14 20 24 24 32 42 44 51 46 50 64
96 92 96 90 86 83 55 60 67 62 76 79 69 71 73 72 79 73 67 64 40 32 28 26 22 22 20 18 15 14 13 10 8 9 10 12 23 28 31 44 50 54 47 50
91 90 86 76 66 64 58 49 62 57 53 76 74 73 78 72 54 46 41 39 36 37 34 32 28 28 28 27 24 20 16 13 12 10 8 8 10 28 37 42 56 55 60 64
88 95 95 80 77 62 78 98 99 82 77 87 87 83 84 75 68 42 34 31 29 28 28 29 28 28 30 31 28 25 25 32 31 26 23 33 30 26 35 49 62 61 65 73
88 89 88 84 97 87 88 94 98 98 96 82 73 52 43 37 36 35 36 32 33 36 37 41 44 44 42 41 40 34 43 45 43 42 40 48 52 52 61 86 84 77 79 95
99 94 98 99 98 98 98 97 96 92 91 66 59 48 42 41 39 38 34 34 36 43 50 55 55 55 53 48 46 41 44 50 47 53 60 63 65 61 90 100 99 100 100 100

GFSCGP_700_rhum_066.txt.gz
RH
45 47 48 40 51 62 60 52 46 38 30 37 36 36 36 31 25 23 23 25 26 26 30 35 47 46 46 32 20 13 16 22 32 59 75 83 87 90 81 94 94 98 100 100
47 52 53 56 61 52 64 56 53 38 31 39 41 42 40 33 28 26 23 30 30 32 32 33 38 42 47 30 22 12 15 20 27 55 73 82 86 100 100 100 100 99 100 100
61 64 90 90 72 48 51 60 51 46 35 38 43 43 33 29 24 24 23 22 27 31 30 32 39 44 49 31 26 12 14 16 24 52 70 78 82 83 99 99 100 99 100 99
69 70 83 90 88 53 63 51 48 43 42 48 47 50 39 31 27 23 22 21 20 31 29 32 40 46 49 32 32 14 11 14 19 43 74 85 80 71 76 86 100 100 100 100
61 73 73 92 86 66 66 57 50 57 55 47 45 48 39 33 30 26 25 24 19 20 26 29 25 40 50 45 35 28 9 10 16 24 56 76 80 81 78 80 97 97 100 98
66 68 77 68 75 90 86 73 64 50 48 65 47 50 45 36 29 25 25 25 20 19 25 28 30 44 42 45 41 34 11 8 13 16 30 55 75 81 72 75 80 97 98 100
44 60 44 57 94 89 88 85 67 66 67 72 50 49 46 30 27 24 24 25 25 19 24 27 29 36 38 42 35 34 13 9 10 14 17 34 56 72 74 74 80 92 98 98
46 52 56 55 70 93 82 92 83 91 92 66 47 42 38 29 23 23 25 25 21 21 20 24 30 34 41 36 37 36 23 14 9 12 14 16 27 53 72 78 86 99 98 99
49 58 65 67 95 96 97 99 73 92 78 94 60 43 37 36 29 27 26 26 22 22 21 27 33 42 49 33 31 38 38 26 16 10 13 16 19 27 51 77 85 93 95 100
54 56 51 56 76 82 87 98 99 98 97 94 59 48 49 44 30 29 29 27 24 24 26 32 37 44 46 42 35 41 39 42 25 17 12 15 18 21 29 51 71 77 87 97
65 57 44 56 66 90 93 99 98 93 94 96 77 74 81 52 46 34 28 30 29 32 36 36 42 50 51 55 54 60 63 54 47 29 18 14 16 20 22 23 32 52 65 80
90 88 84 66 45 48 84 92 98 98 89 94 97 97 87 56 54 56 50 47 44 43 44 48 50 57 56 61 65 70 80 66 61 55 36 19 16 16 19 23 26 26 26 40
59 85 82 59 50 50 53 78 84 92 99 95 96 91 98 88 64 54 54 60 56 52 54 54 58 61 64 66 61 65 81 81 80 76 70 57 27 21 19 19 24 28 29 28
52 61 61 84 97 96 83 94 92 99 99 92 84 87 99 98 95 83 72 56 52 58 62 62 57 59 54 51 58 55 55 53 48 53 56 56 63 67 47 26 23 23 26 30
60 62 65 63 56 82 92 98 94 100 93 92 77 77 82 98 99 92 92 75 58 43 50 56 63 72 72 70 65 62 59 51 49 49 46 50 59 65 65 59 55 40 25 25
75 75 88 69 86 86 80 82 96 98 99 99 89 83 89 99 100 94 99 91 64 45 56 56 48 42 42 63 77 79 79 67 57 52 45 40 44 51 56 62 65 69 68 61
84 95 80 77 67 61 71 68 71 87 99 99 98 98 96 98 98 100 90 71 63 62 52 54 43 32 33 30 29 33 46 57 69 71 59 55 50 45 43 47 56 50 55 69
73 86 87 87 67 79 63 64 60 70 90 92 92 94 99 94 96 99 97 63 53 48 46 53 31 34 35 27 20 17 15 18 23 29 45 73 69 60 58 55 51 48 50 52
51 56 70 69 66 53 33 52 66 78 91 74 91 99 98 99 97 100 98 77 64 60 56 57 57 53 51 30 13 11 16 23 22 22 20 22 28 43 51 38 40 44 43 43
59 53 67 79 84 86 60 70 77 74 96 90 66 96 98 91 75 76 86 91 81 74 71 64 50 39 24 18 14 13 12 12 12 11 14 16 20 22 25 56 65 36 21 24
70 90 87 88 88 62 43 61 73 73 98 99 82 94 100 95 75 64 71 86 76 66 62 38 28 19 18 16 15 15 13 12 12 10 9 8 8 9 11 13 21 41 59 50
76 88 96 93 92 82 46 69 71 97 99 98 99 93 94 79 71 88 94 90 74 50 36 29 25 23 21 19 17 15 13 12 10 10 9 9 8 8 7 10 15 13 21 32
95 88 93 80 78 81 82 54 66 78 91 97 99 97 96 90 93 96 77 51 43 37 32 28 24 21 19 16 14 13 13 13 12 12 11 11 10 12 13 12 10 16 24 28
96 97 95 93 91 84 76 87 73 100 99 98 98 89 82 72 62 58 69 68 57 34 30 23 19 20 20 19 21 21 22 23 25 24 24 28 28 29 28 27 25 17 24 36
97 90 95 98 93 87 93 88 94 98 99 99 88 86 88 83 75 53 40 34 31 28 22 20 21 25 29 31 31 31 31 31 28 30 28 34 35 33 34 40 48 45 42 69
97 96 91 98 98 97 98 100 98 97 98 91 77 60 50 46 42 37 33 32 30 29 27 26 29 30 36 36 36 38 40 41 40 38 38 43 46 52 58 62 59 63 79 99

GFSCGP_700_rhum_069.txt.gz
RH
34 36 39 42 42 40 53 56 59 56 49 42 35 33 28 28 31 26 36 23 25 24 24 26 28 37 44 48 39 25 12 12 14 22 54 50 66 83 82 84 98 97 99 100
44 41 36 52 53 59 50 52 64 61 51 54 45 38 31 35 36 34 28 23 24 23 25 27 30 35 40 50 42 30 13 12 15 21 54 61 74 81 88 84 89 95 92 98
51 38 61 68 70 76 69 53 48 60 57 53 47 40 32 34 38 33 28 26 24 24 26 30 33 33 42 50 42 32 15 11 14 22 39 70 83 86 84 87 99 98 99 99
57 38 63 67 82 82 80 63 49 58 54 48 47 58 40 35 37 29 25 25 24 23 26 33 33 32 45 50 37 33 27 11 13 20 47 61 72 71 76 90 98 100 98 98
46 68 73 63 68 88 85 66 68 62 60 62 47 48 42 38 39 28 27 29 26 26 22 22 27 32 44 54 53 44 34 12 11 16 36 63 68 76 75 82 98 98 100 99
50 57 69 50 64 88 81 81 83 68 65 71 46 47 47 43 37 28 25 26 25 26 23 21 23 31 43 55 52 51 35 15 10 16 23 45 66 73 73 70 74 90 99 99
33 30 35 53 60 76 88 99 88 80 78 69 42 46 44 42 38 32 26 25 25 27 24 22 20 30 43 50 49 48 34 15 10 15 21 34 58 67 70 69 80 86 84 96
39 36 52 48 51 62 76 97 97 89 88 76 50 54 44 40 38 33 28 26 24 26 24 20 20 33 41 41 49 48 37 18 14 11 17 24 35 56 67 72 75 94 91 100
47 57 66 62 69 79 96 99 97 96 95 89 64 49 42 43 36 27 27 24 24 23 23 21 20 34 37 47 41 46 41 36 21 14 12 18 23 30 53 66 73 76 94 99
63 58 51 55 77 88 97 99 99 99 98 95 67 69 83 57 40 33 28 28 26 23 20 20 26 41 41 56 55 55 60 52 47 25 16 16 20 25 30 45 59 77 88 95
71 63 56 63 80 72 98 99 99 98 97 93 87 90 81 82 73 47 31 29 27 22 21 26 37 45 55 58 60 69 78 81 72 62 35 21 20 23 25 29 41 54 78 93
96 95 86 66 56 60 64 84 99 98 99 94 99 93 92 81 90 92 55 31 28 25 26 37 43 53 57 62 66 71 80 82 72 68 65 41 21 21 24 28 32 39 50 63
61 86 85 60 56 68 77 78 92 98 97 90 97 91 100 97 86 88 94 81 46 30 34 38 47 54 59 60 63 61 70 72 59 53 48 52 45 27 27 28 31 34 40 50
59 58 60 76 75 92 87 93 99 99 99 94 92 91 97 99 98 95 85 86 99 74 61 53 52 56 62 62 60 59 62 57 51 57 59 57 61 51 36 26 27 28 32 34
59 59 60 53 55 67 79 72 92 98 99 98 68 72 78 89 99 98 99 94 89 83 99 78 62 65 63 62 62 59 58 58 56 52 55 52 57 55 55 52 50 48 37 29
68 68 81 59 61 83 72 70 81 81 99 98 94 82 88 99 99 99 99 99 93 97 78 73 73 80 77 78 72 70 68 63 58 50 48 53 55 54 54 58 61 59 60 58
74 76 84 71 71 57 47 66 72 79 78 79 99 86 92 94 87 99 98 99 96 97 96 94 86 55 52 36 36 38 45 53 53 50 50 46 46 45 46 49 53 57 62 64
63 66 84 80 68 76 46 59 66 71 76 93 82 84 94 100 99 98 100 99 97 97 97 96 88 93 61 49 45 45 31 20 22 26 30 33 34 35 38 36 40 47 52 56
45 48 70 70 60 53 37 77 63 90 84 94 84 98 99 99 100 99 99 99 96 96 97 94 67 54 52 49 37 20 12 11 16 20 20 23 24 25 25 29 30 24 22 23
55 60 80 74 80 82 66 54 77 69 92 85 86 99 99 99 99 98 98 99 99 99 95 76 36 27 22 21 19 18 16 14 12 11 10 10 9 9 10 12 17 20 20 20
62 73 83 83 87 64 38 37 67 66 77 76 86 96 95 93 89 93 99 97 94 91 85 52 35 28 26 24 22 20 18 16 14 13 11 10 10 9 8 7 6 6 7 11
68 80 92 100 92 85 34 33 61 69 67 87 95 100 100 96 100 100 100 99 99 92 63 41 35 32 28 22 19 17 15 14 12 12 11 10 9 9 8 8 8 7 6 6
71 94 94 79 83 70 74 78 64 67 76 99 99 100 99 100 99 99 99 98 86 48 41 42 41 39 28 19 17 16 15 14 12 12 12 14 15 14 13 14 13 13 14 13
87 95 96 98 98 84 81 77 78 94 76 68 76 98 98 94 95 95 90 74 70 67 64 59 48 24 20 19 19 21 22 21 20 19 19 20 19 20 20 19 22 23 26 30
98 92 90 98 98 99 100 100 92 98 99 99 98 95 90 88 74 76 76 58 42 36 33 29 26 24 26 28 28 29 29 29 30 31 32 30 30 29 30 33 36 39 40 42
95 84 91 96 97 98 100 98 100 99 98 96 97 94 93 87 77 67 54 43 36 34 33 32 30 29 31 32 36 41 42 42 43 42 42 41 41 43 50 52 52 50 50 53

GFSCGP_700_rhum_072.txt.gz
RH
22 24 23 24 38 43 47 52 53 55 56 55 50 46 40 34 31 26 27 25 23 26 23 23 24 25 32 35 47 53 37 21 12 13 20 44 57 79 86 91 93 100 100 100
37 32 27 38 43 50 52 52 49 46 38 54 56 54 43 40 35 27 30 32 26 27 23 23 24 24 27 33 45 56 35 20 10 12 20 38 63 84 84 94 91 97 100 100
34 36 46 57 60 66 75 69 68 65 46 44 59 57 48 44 38 28 38 36 33 28 23 24 24 27 30 38 48 57 35 25 9 12 21 38 63 75 80 87 92 96 97 98
43 34 46 51 58 68 87 80 83 75 54 54 53 57 53 46 36 29 39 34 28 26 24 24 25 29 32 38 49 47 36 34 9 12 21 49 66 75 76 89 95 94 96 98
39 54 58 59 62 69 73 86 83 70 72 75 65 59 53 41 33 28 36 33 28 26 25 24 23 26 34 39 49 53 50 37 11 12 18 51 64 72 78 85 95 100 99 99
39 44 47 43 45 62 72 86 83 82 78 85 67 64 51 34 29 28 33 35 30 26 24 23 23 25 35 40 52 58 56 43 13 11 16 31 64 70 71 73 84 98 100 100
38 35 29 34 53 49 65 95 91 90 90 86 52 63 53 39 41 40 34 32 28 31 27 27 25 23 23 35 48 58 60 48 16 11 16 23 43 63 70 71 71 78 97 100
48 41 45 50 48 46 59 93 90 89 88 78 50 61 46 53 49 39 37 30 28 27 28 26 25 22 21 33 45 56 54 46 18 13 16 20 28 50 64 70 69 70 87 91
51 51 64 62 66 72 86 97 92 98 91 98 62 48 46 49 42 35 29 29 28 27 26 26 25 20 21 35 46 61 54 49 24 17 15 19 22 32 53 61 65 71 76 91
58 63 58 58 61 80 87 98 99 98 98 89 67 74 96 69 54 41 29 25 27 25 24 25 24 23 26 38 50 66 54 48 42 22 17 19 22 25 30 42 57 72 80 88
61 64 64 66 77 70 86 94 96 98 86 98 94 97 100 100 85 51 37 26 26 26 26 24 22 23 34 43 60 69 64 62 50 46 25 18 19 23 28 36 45 48 53 67
80 84 88 68 60 72 70 70 73 98 99 94 99 98 100 100 98 96 57 41 29 28 26 27 23 31 40 49 67 72 82 90 79 55 45 30 18 18 23 27 35 49 58 56
78 95 82 57 77 90 91 88 87 91 98 99 97 91 100 99 100 98 98 88 65 36 31 27 30 37 45 59 66 70 78 73 55 50 50 51 42 21 19 20 24 29 38 51
66 62 54 60 56 68 64 81 89 96 99 98 91 88 99 99 99 100 98 100 100 99 85 46 42 42 50 61 60 65 69 61 58 61 63 60 57 50 38 23 22 22 24 27
64 58 55 50 54 65 80 79 61 85 77 98 98 96 98 94 99 99 99 89 83 100 100 99 89 73 60 63 66 69 71 73 71 61 62 60 59 59 58 53 50 47 41 31
73 67 68 53 60 73 76 57 51 62 78 92 68 68 65 98 99 99 96 98 96 56 61 86 95 97 94 90 86 87 96 85 76 70 66 63 62 63 63 59 60 61 65 68
75 73 74 65 56 46 37 61 63 71 80 75 81 70 96 94 84 84 95 100 96 96 83 56 50 58 55 55 57 54 56 43 46 49 48 46 45 50 56 59 58 55 55 59
69 64 62 70 54 73 32 57 57 69 82 77 77 76 99 100 99 100 100 97 100 99 99 98 89 76 61 50 46 28 36 38 34 24 19 19 20 23 29 32 32 31 34 39
63 69 62 63 62 50 30 63 80 82 66 73 88 93 96 93 93 99 100 100 99 99 98 98 90 91 91 75 58 47 34 14 12 14 14 15 17 18 18 18 18 17 18 20
46 75 89 84 82 83 39 66 50 59 49 72 88 94 93 99 99 99 100 100 99 99 96 89 56 62 37 28 22 20 20 18 15 13 12 12 12 11 10 10 10 9 8 8
74 78 84 80 88 66 39 29 37 59 48 66 72 89 96 100 99 99 96 98 98 98 96 90 70 71 57 35 22 21 20 19 17 16 14 13 12 11 10 9 9 9 8 10
56 68 81 99 95 84 51 46 44 53 52 81 97 96 98 99 95 98 100 100 100 97 96 70 41 35 37 38 36 24 18 16 14 14 13 12 11 10 9 9 8 8 7 7
67 71 83 90 82 63 62 77 76 75 67 62 87 99 100 100 99 99 98 98 98 95 66 40 46 53 54 36 24 20 18 17 16 16 16 17 17 17 16 15 15 14 14 12
83 88 97 98 92 81 78 76 81 84 81 92 89 79 95 97 97 97 97 96 95 67 69 62 45 35 29 25 23 22 22 24 23 23 24 25 26 27 27 25 24 27 30 33
92 96 97 99 99 99 100 100 98 99 100 100 99 99 99 96 97 96 94 95 91 67 42 38 37 34 30 28 28 29 31 32 31 31 32 34 36 40 45 47 49 48 48 48
97 96 96 97 99 100 97 98 98 97 98 98 98 96 94 98 94 96 96 95 76 55 50 47 45 40 37 36 37 38 41 44 46 45 45 47 52 58 63 64 64 62 61 59

GFSCGP_700_rhum_075.txt.gz
RH
29 27 14 14 22 37 44 45 52 43 42 44 39 54 52 46 43 39 30 24 23 24 23 24 23 24 24 27 30 38 50 58 38 15 14 19 43 62 81 79 86 93 99 100
35 32 24 27 32 39 49 52 43 50 46 48 46 48 42 42 39 38 35 29 22 25 24 25 23 24 24 25 28 35 47 60 36 15 14 20 48 76 88 86 91 85 98 99
33 29 26 36 49 62 61 66 64 76 69 64 60 52 45 33 38 37 37 30 24 25 25 23 23 23 24 25 28 39 49 62 40 14 15 24 48 78 85 88 93 87 98 100
38 29 29 57 51 68 60 55 74 82 83 65 57 48 51 52 47 37 38 28 28 25 33 22 23 23 25 26 34 43 52 56 43 15 16 30 54 79 83 91 94 100 97 97
35 44 54 46 39 62 61 45 82 90 90 84 76 68 55 50 46 35 36 25 31 36 29 28 23 24 26 29 35 44 56 50 44 16 17 28 59 75 92 98 97 96 100 99
34 40 48 44 60 62 59 46 69 87 90 81 69 66 57 44 35 34 24 26 34 35 29 26 24 24 24 32 37 46 55 59 54 17 16 25 55 72 83 90 93 93 92 100
49 42 39 37 36 38 47 77 76 79 84 63 55 68 59 49 48 38 37 28 33 35 29 27 25 24 23 30 40 48 55 65 62 20 16 21 40 66 79 84 86 90 89 92
52 48 44 52 50 40 59 73 80 78 74 66 65 59 58 61 44 37 34 35 36 33 30 27 25 24 24 25 35 46 56 66 58 21 15 19 28 49 67 76 80 80 82 92
54 50 64 60 58 69 82 98 80 97 91 96 62 58 70 73 65 53 44 34 32 32 31 31 28 27 25 24 34 40 51 64 63 20 14 19 22 30 52 63 70 74 80 93
56 57 60 58 60 71 75 79 99 96 87 78 55 65 90 70 52 41 33 26 19 27 29 28 28 26 26 23 33 41 60 65 61 24 16 14 19 23 30 48 53 66 73 80
63 65 67 66 65 61 81 87 96 98 96 78 85 94 99 99 90 60 54 43 27 23 28 28 26 25 27 24 35 47 68 66 58 45 21 15 15 19 24 28 38 43 65 76
83 70 70 67 69 69 75 87 88 98 93 97 98 84 91 100 98 97 79 56 40 38 29 26 28 27 26 26 39 54 72 60 58 56 46 24 16 17 21 24 26 30 39 51
100 98 98 88 92 87 87 94 99 99 98 99 94 93 99 98 100 100 99 99 88 67 61 46 30 31 29 31 42 67 70 58 54 54 56 54 32 21 19 20 22 26 30 35
96 89 93 78 62 55 56 45 61 86 97 96 97 99 100 99 99 100 98 100 99 99 97 60 41 43 40 44 55 68 63 57 57 54 60 56 57 51 34 23 20 20 22 25
98 91 92 68 52 52 59 59 60 58 58 84 66 69 83 84 93 98 99 83 100 100 100 100 98 80 77 72 67 68 66 63 66 68 68 70 68 66 65 61 51 40 36 32
98 95 93 62 62 67 63 47 50 59 68 66 65 61 74 80 84 92 99 98 96 99 100 100 100 100 98 100 97 75 69 72 75 73 66 75 70 69 66 64 64 66 67 68
96 94 77 67 53 43 35 41 63 60 62 78 98 86 88 92 99 91 95 99 99 87 61 64 83 89 95 100 100 97 89 86 88 92 96 80 71 64 61 63 66 65 64 64
96 92 70 68 52 51 33 43 46 75 76 77 76 94 78 92 99 100 99 100 99 99 89 96 56 49 65 73 66 73 79 80 85 53 30 24 23 24 25 26 30 36 39 39
88 88 72 63 70 46 30 60 72 77 49 38 66 96 100 96 99 98 99 99 100 99 99 98 95 97 88 82 89 84 55 26 24 20 16 15 13 13 13 12 12 11 12 12
64 77 81 79 80 64 45 71 55 50 50 90 69 71 66 97 99 99 100 98 99 98 99 99 98 95 86 77 77 70 51 34 43 30 16 14 12 11 11 11 10 9 9 9
67 78 92 94 87 69 46 37 39 50 48 40 50 72 84 100 100 99 98 99 98 98 97 97 96 94 92 89 60 34 28 23 21 20 18 17 15 14 13 12 11 10 10 10
63 63 77 100 95 82 60 61 51 52 44 40 45 63 99 99 99 99 98 98 98 98 97 78 63 56 45 37 46 52 45 23 17 15 15 14 13 12 12 11 11 10 11 11
68 78 91 86 81 65 70 72 77 78 68 100 94 93 77 99 98 98 98 98 98 98 92 69 48 40 40 39 33 27 24 21 19 18 15 15 15 14 14 15 15 14 14 13
87 72 76 81 96 92 87 83 96 100 98 97 100 92 88 98 97 97 97 97 97 96 88 69 61 50 41 35 30 27 28 26 24 24 22 21 21 21 22 22 22 23 25 26
84 90 96 97 98 97 97 100 95 95 92 94 100 99 99 100 98 98 98 97 97 96 93 66 47 41 38 36 36 36 39 39 36 34 30 27 28 30 31 32 36 39 41 47
100 97 96 97 98 97 97 99 98 98 98 97 97 96 95 95 95 96 96 96 96 85 64 54 49 44 40 40 41 42 45 49 51 50 45 45 46 48 51 54 55 57 58 58

GFSCGP_700_rhum_078.txt.gz
RH
31 48 42 39 47 39 41 48 42 38 40 43 41 39 36 37 45 47 44 42 36 33 32 28 23 23 23 23 26 27 31 45 62 62 34 11 13 19 51 56 74 79 95 100
62 55 42 45 49 55 49 44 46 49 54 55 48 43 40 37 36 38 45 46 40 34 28 23 23 23 23 24 26 26 29 44 57 63 36 10 14 29 56 74 79 84 89 97
55 44 45 48 54 60 58 61 57 62 66 64 57 42 36 39 43 39 43 44 41 38 32 27 24 23 23 24 24 25 29 43 54 64 41 11 17 37 59 73 79 84 93 98
64 59 45 73 65 73 60 72 69 68 65 40 51 34 34 39 40 38 38 43 40 35 30 23 26 23 23 24 24 26 36 43 50 65 41 13 19 46 66 75 84 88 94 99
52 63 41 64 63 77 62 83 71 67 70 65 55 53 36 43 43 41 39 40 40 40 31 31 22 23 22 23 24 26 39 46 52 55 37 14 22 53 63 76 84 94 92 100
63 61 39 74 80 78 78 73 57 59 67 61 47 50 35 37 47 44 50 47 48 36 33 27 30 25 22 23 24 28 40 48 58 57 36 14 22 53 63 76 83 85 90 100
55 56 67 45 76 79 77 56 34 47 63 46 46 48 42 44 64 65 59 56 36 24 37 35 30 28 24 24 28 34 39 50 57 65 45 14 21 40 67 77 90 90 91 98
41 42 46 52 66 52 67 57 45 50 42 34 47 45 42 63 46 52 44 42 46 32 37 33 28 26 24 24 29 35 44 50 60 68 50 13 19 32 51 70 80 89 92 90
46 46 56 60 59 69 84 78 71 74 67 66 43 40 54 77 87 86 53 44 44 38 36 31 30 28 26 25 27 38 40 50 65 68 45 13 17 24 43 56 68 76 77 81
55 49 57 60 59 64 84 81 93 89 76 55 32 40 52 95 98 69 54 47 43 38 35 32 31 28 28 26 26 34 45 54 65 63 43 15 16 22 31 44 50 56 67 69
64 60 63 67 78 65 89 87 93 93 87 59 51 88 98 85 78 75 67 56 35 27 21 29 32 35 34 28 28 30 42 52 63 57 47 19 16 20 26 30 36 44 66 72
85 84 63 54 59 72 68 70 87 75 74 95 94 74 100 100 98 85 99 88 71 54 35 28 30 34 34 28 29 34 47 60 65 56 51 27 16 18 22 27 31 33 35 58
98 96 69 59 82 86 80 86 88 97 98 94 91 87 99 99 97 98 97 99 99 97 70 46 32 32 33 29 32 37 57 68 55 59 52 44 24 17 19 23 27 32 35 34
98 97 76 43 87 83 84 79 84 87 84 69 64 82 92 96 96 98 93 94 100 100 100 73 54 38 35 36 38 44 66 66 56 58 51 54 49 33 20 20 22 25 30 35
78 97 90 98 74 95 65 58 57 68 66 66 44 47 54 84 98 92 93 96 100 100 100 100 74 80 62 52 61 78 81 79 66 65 63 67 63 61 54 37 25 24 25 28
85 97 95 94 78 82 67 56 45 52 62 60 62 65 76 93 88 98 88 96 95 100 100 100 99 100 94 98 98 100 100 97 76 70 77 78 77 73 72 73 73 63 55 46
94 97 94 75 75 62 48 44 51 54 55 76 76 80 97 99 92 100 100 99 93 97 100 100 100 100 100 100 100 100 100 100 81 82 82 79 81 85 79 80 81 78 76 75
96 96 94 64 56 43 56 56 61 65 69 91 86 87 82 97 94 97 100 99 99 98 97 96 95 100 100 100 100 100 100 100 95 90 87 82 84 94 84 74 73 74 73 73
84 96 92 58 49 41 39 82 81 83 71 56 86 82 76 88 99 99 98 98 99 99 98 96 98 98 92 68 64 63 70 87 100 100 95 100 99 81 28 24 22 21 21 21
89 94 98 75 52 46 72 77 58 63 61 65 60 52 72 96 100 98 96 99 99 99 99 98 98 97 98 97 91 79 66 60 56 50 61 86 38 17 15 14 12 11 10 10
72 98 89 68 58 56 67 49 52 56 80 67 41 36 55 99 99 100 100 99 99 98 99 99 99 99 97 94 88 94 78 67 69 70 78 63 38 24 20 15 14 13 12 11
72 78 84 76 73 63 63 64 79 78 67 67 71 58 63 96 100 100 99 98 98 98 98 98 97 96 88 88 89 73 58 48 41 37 33 30 24 18 15 15 18 16 14 14
79 90 95 88 95 79 67 68 72 73 98 94 96 84 66 96 100 98 97 98 98 98 97 95 85 72 53 44 41 40 42 47 45 38 27 20 19 17 18 21 23 20 20 19
93 73 73 75 75 69 87 83 81 94 98 90 94 96 91 98 100 98 97 97 97 97 97 76 65 60 54 46 39 35 32 32 32 32 31 32 32 31 32 30 26 25 24 26
94 89 100 100 99 95 97 99 93 90 98 96 98 97 97 97 98 99 97 97 97 97 97 89 90 53 44 41 40 38 36 35 35 35 36 38 38 38 38 38 38 37 36 34
92 96 98 98 97 96 97 96 95 96 98 96 97 98 98 97 97 96 96 97 98 97 97 70 60 55 51 48 45 42 42 43 45 46 46 49 50 51 50 50 50 50 50 52

GFSCGP_700_rhum_081.txt.gz
RH
50 47 38 38 39 42 33 30 28 29 28 30 30 29 29 28 28 31 38 39 37 35 30 27 30 40 63 52 22 22 27 30 33 46 56 56 33 10 11 16 36 56 59 82
45 44 37 33 34 35 38 38 36 32 32 44 43 39 33 32 30 29 29 34 38 38 34 30 30 42 31 26 23 22 26 30 31 44 52 59 39 12 13 23 45 54 73 93
49 40 50 51 44 41 38 37 36 39 40 40 36 32 31 31 35 36 31 28 30 38 36 31 29 41 26 24 22 23 24 25 32 40 51 59 46 12 15 36 45 67 80 78
44 45 45 40 47 43 41 41 46 54 46 34 32 32 29 25 26 30 31 34 32 38 38 33 27 37 26 23 23 24 24 24 30 40 50 57 40 12 23 43 56 73 83 89
41 46 57 52 46 48 49 52 64 58 48 39 34 32 26 27 30 32 33 34 34 37 38 33 30 29 33 23 23 24 24 25 33 44 51 49 29 12 23 44 64 71 81 88
51 45 52 54 57 65 51 62 62 48 40 41 36 31 24 25 38 41 42 41 37 38 37 35 28 28 49 27 24 24 25 25 38 46 52 51 19 12 23 48 57 71 81 93
48 48 53 67 58 62 65 59 37 27 40 42 31 35 28 34 56 63 65 63 71 67 60 47 38 38 50 40 23 23 23 25 40 46 53 57 22 13 21 50 57 74 81 90
30 28 40 53 62 51 50 54 39 44 38 45 53 35 44 58 64 71 75 90 94 94 92 72 52 50 70 34 22 22 23 26 41 46 56 59 27 13 18 39 61 70 80 88
31 28 45 56 62 57 56 54 47 48 44 41 33 27 47 70 74 80 94 100 74 54 65 74 66 69 39 31 27 23 26 32 41 51 60 60 27 12 17 29 54 64 70 77
40 36 41 56 64 65 60 73 79 62 62 49 29 30 89 96 96 88 76 55 51 48 46 40 90 95 40 30 26 26 31 37 46 52 60 60 25 13 18 20 36 57 71 75
73 44 34 41 54 47 64 68 72 80 74 60 55 81 100 81 76 92 86 70 54 43 40 42 76 100 66 27 29 29 33 41 47 57 53 56 29 14 17 20 21 34 50 69
99 89 47 34 38 46 47 60 69 76 50 63 67 70 100 91 97 94 90 90 85 69 42 40 37 36 34 32 31 30 37 43 52 58 53 56 36 16 16 22 24 26 37 64
90 87 62 47 46 47 46 47 57 85 86 74 73 79 89 77 72 77 79 79 88 98 99 68 51 39 38 35 34 34 33 43 55 53 53 56 40 21 16 21 26 28 27 34
77 87 93 55 63 85 90 50 64 80 81 66 65 51 72 73 84 82 76 83 90 99 100 100 89 64 56 41 38 35 33 39 54 56 51 56 47 35 22 18 23 29 33 33
86 94 84 78 55 70 76 95 67 74 69 56 46 39 43 69 88 80 75 82 95 98 100 99 100 92 77 52 44 44 49 66 63 54 57 57 53 51 36 23 23 26 27 32
95 87 88 86 88 75 75 79 52 46 40 40 42 43 83 96 79 92 78 96 94 98 95 100 100 100 100 96 65 70 81 99 96 83 63 63 64 62 66 61 42 30 30 33
98 98 100 81 88 78 80 62 53 39 44 45 59 80 84 94 93 87 76 98 99 97 98 99 100 100 100 100 98 100 100 100 100 100 94 95 91 84 83 87 83 79 71 54
92 95 96 94 77 70 51 46 43 42 47 71 78 90 81 77 95 96 98 98 99 94 97 98 100 100 100 100 100 100 100 100 100 100 100 100 100 99 95 97 98 99 100 99
86 95 94 97 47 50 41 63 60 64 95 97 98 100 82 55 81 89 100 98 96 98 98 99 96 98 100 100 100 100 100 100 100 100 100 100 100 98 91 82 97 97 100 100
85 88 95 96 63 52 80 76 84 67 73 96 72 57 41 49 96 88 100 99 99 98 98 98 98 95 98 97 96 99 99 99 100 100 98 97 100 100 98 100 100 69 33 26
100 100 92 95 54 59 96 86 60 56 97 77 63 64 33 59 87 100 100 100 98 98 98 98 99 97 98 96 96 97 92 86 84 78 87 97 99 95 93 96 50 18 17 15
69 64 68 70 64 65 67 86 79 96 87 66 63 50 44 59 76 99 99 99 97 97 97 98 97 97 97 96 96 96 97 97 96 94 95 94 94 95 90 74 52 38 21 16
84 92 97 95 97 90 63 65 73 78 73 77 76 87 85 83 99 99 97 97 98 97 97 98 98 98 96 82 97 91 83 85 76 67 69 89 84 64 65 74 54 43 41 35
91 78 98 84 82 70 75 79 92 87 81 97 81 92 94 97 96 97 100 99 97 97 97 97 96 89 66 59 52 47 43 39 40 40 40 38 38 38 38 38 37 37 34 32
83 96 82 94 82 87 94 98 98 99 92 99 98 96 96 97 95 96 97 98 96 97 97 96 94 75 55 47 42 42 41 41 42 42 41 40 39 40 40 40 40 39 42 45
81 84 87 96 93 93 95 96 97 98 97 98 96 96 97 97 96 96 96 96 96 97 97 97 96 94 58 52 49 46 44 43 44 44 45 45 45 47 52 52 51 51 51 53

GFSCGP_700_rhum_084.txt.gz
RH
51 47 39 37 34 35 35 36 34 30 26 26 27 27 27 27 25 26 25 32 35 34 34 31 26 22 25 32 46 58 46 32 28 24 31 38 50 60 42 20 10 14 28 70
43 43 41 36 34 31 33 31 31 30 29 31 29 28 32 36 35 31 28 26 28 37 35 34 27 24 27 38 52 62 36 25 25 27 33 38 45 58 48 25 11 25 40 62
42 38 37 46 42 40 35 33 33 32 31 35 40 35 29 30 22 28 30 30 28 29 37 37 33 27 32 42 59 57 30 21 25 31 30 33 44 58 55 21 16 38 52 67
39 38 38 39 41 39 40 34 34 40 38 45 38 40 30 24 29 29 32 32 34 30 29 37 35 29 35 37 43 60 29 22 25 26 27 31 46 56 53 15 25 40 57 87
40 36 39 44 44 36 33 37 42 46 53 52 48 36 29 23 24 24 26 30 32 36 29 32 37 32 29 34 34 33 25 24 24 24 26 32 48 49 43 13 28 48 62 76
37 37 35 35 42 44 50 51 45 51 51 54 46 32 30 28 43 56 46 48 45 35 34 36 38 34 36 33 31 30 23 26 24 25 26 39 49 41 27 14 31 54 70 76
37 43 44 45 50 48 57 56 43 42 36 46 65 68 37 55 72 65 56 60 62 68 61 51 42 33 31 45 42 32 25 25 25 26 30 44 40 47 28 14 27 59 68 77
28 26 26 47 55 48 47 54 51 46 51 43 46 88 53 65 71 72 68 76 69 70 68 63 52 40 34 38 49 42 33 25 24 26 34 46 42 48 30 15 28 63 69 79
39 31 37 42 46 49 45 42 44 48 44 46 40 38 70 96 97 90 84 84 69 56 64 61 64 48 48 54 56 49 39 29 25 27 36 47 48 52 26 15 24 49 64 78
60 61 36 42 51 51 48 50 66 80 70 52 30 42 91 88 97 75 60 65 55 51 64 73 66 75 71 80 70 46 38 26 28 31 38 51 52 57 21 16 24 36 46 55
78 76 75 45 77 57 46 54 53 67 68 69 84 95 99 91 89 90 89 84 78 59 50 55 67 68 77 77 74 71 61 37 39 37 43 51 56 56 20 16 23 36 36 48
56 86 90 60 40 46 47 39 56 68 58 59 59 70 97 89 79 75 75 74 72 77 59 59 65 66 60 50 71 82 71 56 42 44 46 53 56 49 22 15 23 28 32 38
61 82 73 52 43 42 48 50 79 66 77 80 87 68 80 68 87 77 63 62 73 78 100 87 62 62 58 55 56 58 47 46 55 55 50 52 56 53 28 16 21 25 30 32
81 79 83 80 72 92 90 91 81 56 72 70 63 78 65 75 91 100 58 67 79 83 98 99 98 98 74 75 51 52 65 48 57 49 48 50 52 52 39 20 17 22 25 29
70 76 71 86 68 72 89 94 80 85 96 68 60 51 64 74 93 75 71 64 75 87 92 98 99 99 98 96 76 72 99 64 61 55 54 54 61 55 42 25 20 21 24 29
73 87 73 66 68 66 76 77 79 72 93 81 54 46 86 85 99 97 76 79 89 86 94 86 99 100 98 100 91 98 100 100 89 58 80 67 61 61 47 37 27 25 25 29
85 93 96 70 58 68 80 57 57 64 61 56 55 98 94 67 77 74 86 98 100 97 85 85 97 100 100 100 99 100 100 100 96 92 100 98 88 70 62 57 50 51 40 32
81 90 94 90 81 76 55 48 47 51 75 72 98 99 73 56 61 84 86 99 100 95 87 92 99 99 99 100 100 100 100 100 99 99 99 99 100 95 94 93 94 98 87 82
82 80 95 93 83 78 54 49 51 55 98 97 98 84 53 41 38 94 91 99 99 100 100 95 95 98 98 99 100 100 100 100 100 100 100 100 100 100 100 100 100 100 100 89
66 71 96 92 95 95 98 78 75 66 96 84 88 70 71 53 41 85 100 100 99 100 100 100 96 98 98 95 97 99 100 100 100 100 100 100 100 100 100 100 100 100 93 95
67 76 72 87 96 96 92 91 59 58 99 87 58 54 40 41 45 61 100 99 99 99 100 98 95 96 97 99 96 97 94 97 98 99 99 98 99 100 98 98 99 100 100 100
78 89 90 94 97 96 74 54 77 100 86 78 68 69 75 60 61 85 100 99 98 97 100 100 96 96 97 97 97 97 96 98 96 97 95 96 96 98 98 95 96 97 91 76
94 97 97 92 97 100 85 73 70 68 60 57 75 82 95 99 100 99 99 98 98 98 99 100 97 97 97 97 96 97 99 96 97 96 96 94 97 97 95 96 96 94 94 84
97 96 95 95 78 83 82 79 81 88 87 83 86 99 97 96 97 95 97 97 98 98 98 99 96 95 92 87 83 86 85 59 57 55 58 63 70 58 53 55 64 77 91 93
88 91 89 99 91 83 88 87 92 98 100 100 99 98 98 96 96 95 96 96 96 96 97 98 98 94 93 93 80 73 71 69 65 60 56 55 52 47 54 55 55 54 52 50
86 88 88 100 98 94 94 94 93 96 97 97 97 97 97 97 95 95 96 96 96 96 96 97 96 96 95 79 73 75 67 62 58 55 56 53 51 53 53 53 53 53 52 53

GFSCGP_700_rhum_087.txt.gz
RH
52 50 28 27 33 36 35 35 35 34 33 32 28 26 26 27 25 25 23 18 24 28 28 32 34 35 33 32 27 28 40 42 45 46 38 38 30 34 45 56 55 39 12 13
51 51 30 38 38 38 38 35 33 32 30 31 32 30 30 29 26 30 30 26 26 31 29 32 32 34 32 25 25 28 34 40 46 47 35 37 32 35 41 49 57 44 14 24
51 46 41 40 41 40 37 40 39 36 36 35 37 36 35 36 21 30 31 28 27 32 28 31 35 34 30 23 23 24 37 45 40 46 39 34 31 30 34 46 54 37 15 36
46 43 43 41 44 44 43 42 38 35 35 47 46 57 49 28 22 20 27 34 30 29 31 27 33 35 32 27 24 37 45 49 36 43 33 31 29 31 37 47 48 22 18 40
40 40 39 39 38 38 40 41 37 36 42 49 50 53 45 40 37 27 39 47 29 30 34 31 36 33 34 33 41 39 41 39 34 36 30 28 29 32 37 48 43 14 26 44
39 30 38 36 35 38 40 46 51 52 49 56 43 57 60 59 41 39 45 68 49 32 35 31 31 32 37 35 33 39 37 34 34 36 32 26 30 33 41 48 40 15 38 54
39 39 41 42 37 39 43 53 68 58 61 60 44 54 55 64 77 78 74 77 58 44 41 36 32 38 38 47 44 32 29 30 30 35 27 26 28 34 46 51 31 16 39 53
25 28 24 29 44 45 50 50 64 73 70 59 46 51 62 82 100 95 98 88 61 55 46 45 40 39 39 39 57 44 41 34 34 32 30 27 28 41 52 50 25 18 39 60
68 49 32 43 39 48 51 50 47 55 54 60 48 38 83 88 89 99 80 68 60 59 57 65 59 51 45 43 44 52 43 44 41 40 33 30 32 44 55 60 23 18 33 59
61 71 49 49 52 51 48 37 52 59 91 81 47 70 95 94 76 93 90 77 64 48 54 59 60 60 62 44 72 72 66 58 51 48 36 31 36 52 60 63 20 17 29 52
37 58 63 63 49 55 49 52 50 52 65 87 86 76 98 74 73 80 90 72 72 60 52 51 57 63 73 68 95 99 96 88 57 50 38 34 40 52 60 60 18 18 24 40
43 50 60 56 44 41 69 60 58 60 65 65 67 86 88 78 82 86 79 64 69 71 57 51 66 72 72 72 79 86 83 93 90 70 46 40 40 53 58 55 18 17 24 33
54 66 80 44 32 39 72 94 94 87 76 96 90 74 75 63 95 98 99 71 74 88 90 62 53 51 56 62 61 62 72 85 92 97 92 48 51 61 62 49 22 18 22 27
66 64 62 85 69 74 91 84 92 95 98 98 90 73 72 72 96 99 98 75 81 80 93 97 96 76 63 54 56 65 68 83 91 97 72 60 57 57 58 52 31 20 18 22
77 84 85 82 55 62 78 87 78 91 94 98 79 86 77 76 90 99 95 81 67 87 82 94 98 98 98 99 85 79 76 86 98 99 80 90 64 61 68 55 33 22 20 23
82 79 81 71 57 73 64 58 63 56 96 74 85 96 100 98 100 90 80 78 75 94 87 88 93 99 99 99 98 100 100 98 100 100 100 99 79 73 78 63 35 25 22 24
46 73 85 76 64 86 76 51 39 41 94 76 88 96 93 83 64 80 79 97 89 86 91 90 94 90 100 100 100 100 100 100 100 99 99 100 100 99 96 74 46 35 29 26
63 82 88 92 67 92 46 45 60 84 97 98 98 98 79 50 43 60 79 100 95 98 98 99 97 94 96 100 100 100 96 100 100 99 100 100 94 100 100 88 57 64 41 37
95 83 95 86 86 71 42 88 98 88 98 99 94 73 60 48 43 55 98 100 100 95 99 99 98 99 95 97 100 100 100 100 100 100 100 100 99 99 99 99 80 63 63 70
80 89 92 89 95 94 92 92 99 98 98 95 75 59 49 45 55 56 46 97 100 93 93 98 99 98 100 99 99 99 98 100 100 100 100 100 100 100 100 100 100 99 100 100
80 84 91 85 78 90 95 94 96 95 99 82 66 58 50 46 40 41 50 100 100 91 94 94 97 98 98 100 99 96 96 96 96 98 97 98 99 98 99 99 100 100 100 100
74 78 76 82 94 96 85 78 79 99 100 64 50 65 66 70 75 95 100 99 98 95 97 96 98 98 98 100 100 100 98 99 96 95 97 96 96 98 98 94 99 98 98 97
96 97 94 90 96 96 100 99 100 100 93 68 67 83 92 91 97 96 96 97 97 98 97 96 97 97 96 98 100 98 97 94 97 97 97 96 97 98 95 97 96 97 94 96
92 94 97 94 98 96 96 93 93 100 100 96 90 94 90 86 90 95 95 95 96 96 97 98 98 98 93 95 96 96 96 94 94 95 94 94 96 94 94 96 96 96 96 97
86 85 96 97 97 96 99 99 99 99 100 100 97 95 93 89 91 93 95 96 96 96 97 96 96 96 96 97 92 95 94 94 93 92 91 91 92 95 94 85 78 81 84 91
82 81 86 100 100 100 97 96 97 98 97 96 96 93 90 90 93 94 95 96 96 96 96 96 96 96 96 96 96 93 90 89 92 93 91 90 89 94 86 85 83 81 79 78

GFSCGP_700_rhum_090.txt.gz
RH
33 42 18 15 18 18 25 34 37 36 34 36 34 33 25 25 22 22 26 26 20 24 26 27 32 33 30 30 29 28 30 29 34 52 64 67 58 39 37 33 37 47 56 47
50 47 27 39 42 40 40 40 40 36 36 36 37 38 32 27 28 26 20 19 19 25 26 22 26 32 35 33 32 32 32 32 29 46 59 50 52 51 48 40 34 42 53 45
50 24 44 48 45 43 43 43 41 40 40 40 37 35 34 37 36 31 32 29 30 28 29 19 23 28 33 35 35 34 33 33 28 38 55 50 59 54 46 37 32 42 52 43
53 42 49 47 48 44 45 48 45 43 42 40 46 54 39 43 38 57 40 34 28 30 27 30 30 29 32 34 35 34 34 29 28 39 57 52 47 44 37 36 38 42 48 36
40 41 39 41 40 40 40 39 40 41 47 45 42 46 38 43 66 73 88 58 57 36 36 30 32 31 31 34 37 33 25 26 28 38 58 48 43 39 39 40 40 44 43 21
29 26 34 32 31 37 36 38 40 42 50 62 46 46 50 60 68 63 94 93 61 60 50 33 34 32 29 35 37 35 24 24 39 60 53 39 35 33 34 36 38 46 41 16
32 28 28 26 27 38 37 40 64 71 67 72 39 53 52 49 62 85 73 98 91 76 82 44 39 36 31 36 36 38 46 47 55 54 44 33 37 31 36 36 37 45 37 17
50 34 24 23 47 39 35 39 58 82 70 47 52 56 53 69 81 75 89 99 96 89 68 60 50 32 36 35 37 44 70 63 48 39 40 41 39 32 37 34 45 49 27 19
62 47 40 39 50 49 45 48 49 52 53 67 57 55 70 80 71 62 94 99 94 96 78 68 53 42 41 46 48 50 63 64 54 43 43 42 35 28 29 35 51 54 21 20
44 44 51 32 41 54 57 52 52 61 81 84 58 53 61 75 70 74 98 100 93 86 71 61 63 57 53 52 56 53 56 63 63 59 55 42 32 30 31 40 54 54 19 24
35 40 43 40 48 62 51 57 69 74 58 83 87 62 51 72 70 85 98 96 87 76 74 61 60 66 67 63 61 64 64 80 86 89 72 48 36 33 33 48 54 58 19 27
37 35 49 51 27 29 34 70 89 98 89 81 66 66 57 68 64 70 93 100 85 80 84 74 62 61 69 74 78 82 85 84 100 96 96 64 44 36 39 48 64 58 20 29
48 51 58 36 22 36 57 87 93 94 96 98 94 75 59 74 77 79 96 98 79 83 84 81 68 69 77 80 100 95 95 98 86 91 100 86 45 43 50 52 67 54 20 26
63 68 70 74 66 52 54 67 62 83 98 95 89 92 92 89 83 90 75 81 75 70 76 83 84 87 79 85 100 95 100 97 84 95 85 92 66 54 50 51 64 55 23 27
68 71 84 70 57 55 61 61 49 60 76 97 88 98 97 98 95 97 76 64 62 62 77 80 88 90 95 96 97 99 96 100 92 85 88 98 98 97 61 61 71 57 28 31
58 67 78 33 24 41 85 59 58 44 44 69 90 100 100 93 98 95 71 66 70 85 83 79 89 90 91 97 100 100 100 100 100 100 99 98 100 100 74 69 74 75 36 32
56 72 69 61 70 75 71 56 35 29 58 78 96 97 98 97 93 95 88 84 85 84 81 81 87 85 86 100 95 99 98 99 100 98 100 98 94 99 99 79 76 77 58 33
25 43 70 85 82 98 63 78 84 97 88 98 99 98 94 68 45 53 76 96 100 91 89 83 84 86 90 93 99 99 99 100 98 100 99 100 98 97 98 100 100 97 78 43
66 77 94 92 79 62 58 92 96 95 98 98 89 94 71 60 54 56 56 80 100 98 88 86 85 82 83 90 96 98 100 100 99 100 100 99 98 95 98 97 99 100 98 98
84 93 96 99 95 97 86 83 89 96 96 99 92 82 60 50 52 53 49 45 94 96 99 94 90 87 83 91 93 96 97 99 99 100 100 100 100 99 100 100 100 100 100 100
76 99 93 92 94 82 93 92 98 97 97 98 87 65 69 73 76 70 71 91 100 95 98 93 91 89 88 85 90 98 97 97 98 97 100 100 100 99 100 100 99 100 100 100
96 96 97 97 96 95 95 96 91 97 97 95 73 85 89 90 97 100 100 99 93 95 95 92 92 95 95 96 93 95 100 97 97 96 99 97 96 95 96 97 95 97 97 98
94 96 96 96 95 96 96 100 96 98 100 100 98 90 86 87 92 95 95 96 95 93 94 96 96 100 99 95 94 92 98 98 97 96 98 96 97 97 98 95 93 97 98 95
92 96 96 97 96 97 96 96 95 97 100 100 100 94 91 92 90 90 90 91 93 91 89 94 96 97 98 100 96 93 96 95 96 96 96 96 94 95 96 96 96 97 96 96
79 89 88 90 95 92 96 97 100 100 100 98 93 90 91 88 91 90 90 90 92 94 93 96 98 96 96 96 95 96 95 95 96 96 96 96 96 96 96 96 96 97 97 95
69 75 86 92 90 96 98 98 96 98 98 97 94 90 90 88 90 91 94 95 92 90 93 96 95 92 93 96 96 95 95 95 96 95 95 95 95 95 94 95 95 93 92 94